Time,TemperatureF,DewpointF,PressureIn,WindDirection,WindDirectionDegrees,WindSpeedMPH,WindSpeedGustMPH,Humidity,HourlyPrecipIn,Conditions,Clouds,dailyrainin,SoftwareType,DateUTC
2013-05-29 00:00:00,69.0,0.0,3.99,NNW,339,0.0,9.1,0,0.00,,---,0.00,VWS V14.01,2013-05-29 06:00:00,
2013-05-29 00:01:00,64.2,38.8,29.63,East,86,9.4,14.1,39,0.00,,---,0.00,VWS V14.01,2013-05-29 06:01:00,
2013-05-29 00:02:00,64.2,39.0,29.63,ENE,69,13.0,40.8,39,0.00,,---,0.00,VWS V14.01,2013-05-29 06:02:00,
2013-05-29 00:03:00,62.0,-3.4,0.00,SE,131,0.0,0.0,7,0.00,,---,0.00,VWS V14.01,2013-05-29 06:03:00,
2013-05-29 00:04:00,63.7,39.2,29.63,ENE,60,8.7,8.7,40,0.00,,---,0.00,VWS V14.01,2013-05-29 06:04:00,
2013-05-29 00:05:00,69.0,34.4,29.64,NE,41,0.0,9.1,28,0.00,,---,0.00,VWS V14.01,2013-05-29 06:05:00,
2013-05-29 00:06:00,13.2,-14.3,0.00,North,0,0.0,43.5,27,0.00,,---,7.44,VWS V14.01,2013-05-29 06:06:00,
2013-05-29 00:07:00,68.9,1.4,29.63,North,359,0.0,86.3,7,0.00,,---,0.00,VWS V14.01,2013-05-29 06:07:00,
2013-05-29 00:08:00,69.4,30.1,29.63,NNE,13,4.9,85.6,23,0.00,,---,7.09,VWS V14.01,2013-05-29 06:08:00,
2013-05-29 00:09:00,61.7,33.5,29.66,North,8,6.2,9.9,35,0.00,,---,6.32,VWS V14.01,2013-05-29 06:09:00,
2013-05-29 00:10:00,68.9,34.4,29.64,NNE,31,6.2,7.0,28,0.00,,---,7.46,VWS V14.01,2013-05-29 06:10:00,
2013-05-29 00:11:00,69.4,30.0,29.63,NNW,342,4.9,85.4,23,0.00,,---,40.69,VWS V14.01,2013-05-29 06:11:00,
2013-05-29 00:12:00,62.9,39.9,29.63,NE,34,7.5,11.2,43,0.00,,---,0.00,VWS V14.01,2013-05-29 06:12:00,
2013-05-29 00:13:00,2.8,-14.7,0.13,SE,127,0.0,46.2,43,0.00,,---,0.00,VWS V14.01,2013-05-29 06:13:00,
2013-05-29 00:14:00,59.4,32.9,29.69,NW,322,0.0,12.9,37,0.00,,---,1.48,VWS V14.01,2013-05-29 06:14:00,
2013-05-29 00:15:00,69.0,33.6,29.64,North,8,0.0,84.8,27,0.00,,---,99.99,VWS V14.01,2013-05-29 06:15:00,
2013-05-29 00:16:00,6.5,-10.7,29.63,North,0,1.0,9.3,44,0.00,,---,0.00,VWS V14.01,2013-05-29 06:16:00,
2013-05-29 00:17:00,69.2,31.3,29.63,NE,37,5.5,86.0,24,0.00,,---,0.00,VWS V14.01,2013-05-29 06:17:00,
2013-05-29 00:18:00,62.4,40.7,29.63,East,82,0.0,46.2,45,0.00,,---,0.00,VWS V14.01,2013-05-29 06:18:00,
2013-05-29 00:20:00,69.3,0.0,4.05,North,8,45.9,45.9,0,0.00,,---,0.00,VWS V14.01,2013-05-29 06:20:00,
2013-05-29 00:21:00,62.3,41.0,29.63,East,97,0.0,46.2,46,0.00,,---,0.00,VWS V14.01,2013-05-29 06:21:00,
2013-05-29 00:22:00,62.3,0.0,0.06,East,97,0.0,46.1,0,0.00,,---,0.00,VWS V14.01,2013-05-29 06:22:00,
2013-05-29 00:23:00,67.1,35.5,29.62,NE,42,6.2,15.5,31,0.00,,---,0.00,VWS V14.01,2013-05-29 06:23:00,
2013-05-29 00:24:00,62.2,41.2,29.64,NNE,32,4.7,33.6,46,0.00,,---,5.42,VWS V14.01,2013-05-29 06:24:00,
2013-05-29 00:25:00,2.8,-5.9,36.21,NE,41,5.5,9.1,66,0.00,,---,13.78,VWS V14.01,2013-05-29 06:25:00,
2013-05-29 00:26:00,62.1,41.5,29.64,ESE,112,3.5,4.4,47,0.00,,---,0.00,VWS V14.01,2013-05-29 06:26:00,
2013-05-29 00:27:00,62.1,41.7,29.64,ESE,110,0.0,0.0,47,0.00,,---,0.00,VWS V14.01,2013-05-29 06:27:00,
2013-05-29 00:28:00,62.1,0.0,29.64,SE,131,0.0,46.2,0,0.00,,---,0.00,VWS V14.01,2013-05-29 06:28:00,
2013-05-29 00:29:00,1.4,-13.9,0.01,SE,131,0.0,0.0,48,0.00,,---,0.00,VWS V14.01,2013-05-29 06:29:00,
2013-05-29 00:30:00,69.1,31.4,29.63,NNE,13,0.0,20.3,25,0.00,,---,0.00,VWS V14.01,2013-05-29 06:30:00,
2013-05-29 00:31:00,0.3,0.0,29.65,East,98,3.5,3.5,0,0.00,,---,0.00,VWS V14.01,2013-05-29 06:31:00,
2013-05-29 00:32:00,62.0,42.0,29.65,NE,45,0.0,3.0,48,0.00,,---,0.00,VWS V14.01,2013-05-29 06:32:00,
2013-05-29 00:33:00,67.5,0.3,1.13,NE,34,0.0,9.1,7,0.00,,---,0.00,VWS V14.01,2013-05-29 06:33:00,
2013-05-29 00:34:00,62.0,42.2,29.65,East,90,0.0,3.5,48,0.00,,---,0.00,VWS V14.01,2013-05-29 06:34:00,
2013-05-29 00:35:00,68.7,33.0,29.63,NE,45,4.4,21.4,27,0.00,,---,99.99,VWS V14.01,2013-05-29 06:35:00,
2013-05-29 00:36:00,61.9,42.2,29.65,NNE,15,0.0,39.4,48,0.00,,---,0.00,VWS V14.01,2013-05-29 06:36:00,
2013-05-29 00:37:00,61.9,42.4,29.65,East,89,3.2,9.2,49,0.00,,---,0.00,VWS V14.01,2013-05-29 06:37:00,
2013-05-29 00:38:00,66.7,-0.2,1.19,NNE,14,0.0,7.0,7,0.00,,---,0.00,VWS V14.01,2013-05-29 06:38:00,
2013-05-29 00:39:00,61.8,42.8,29.66,ENE,59,3.3,115.0,50,0.00,,---,0.00,VWS V14.01,2013-05-29 06:39:00,
2013-05-29 00:40:00,68.1,34.2,29.63,NNE,20,4.1,4.1,28,0.00,,---,0.00,VWS V14.01,2013-05-29 06:40:00,
2013-05-29 00:41:00,61.7,43.3,29.66,ENE,58,0.0,4.7,51,0.00,,---,0.00,VWS V14.01,2013-05-29 06:41:00,
2013-05-29 00:44:00,62.1,41.4,29.64,ENE,62,3.4,6.2,47,0.00,,---,6.36,VWS V14.01,2013-05-29 06:44:00,
2013-05-29 00:45:00,67.2,55.4,36.21,NE,56,10.9,10.9,66,0.00,,---,14.12,VWS V14.01,2013-05-29 06:45:00,
2013-05-29 00:47:00,61.3,0.0,0.14,East,80,46.1,46.1,0,0.00,,---,0.00,VWS V14.01,2013-05-29 06:47:00,
2013-05-29 00:48:00,61.1,45.6,29.66,NNE,13,0.0,0.0,57,0.00,,---,0.00,VWS V14.01,2013-05-29 06:48:00,
2013-05-29 00:50:00,66.2,36.7,29.63,NE,56,0.0,6.1,34,0.00,,---,0.00,VWS V14.01,2013-05-29 06:50:00,
2013-05-29 00:51:00,60.9,46.2,29.67,NNE,21,0.0,41.1,58,0.00,,---,0.00,VWS V14.01,2013-05-29 06:51:00,
2013-05-29 00:52:00,60.7,46.4,29.67,NE,39,3.4,4.3,59,0.00,,---,0.00,VWS V14.01,2013-05-29 06:52:00,
2013-05-29 00:53:00,60.6,46.8,29.67,East,100,4.3,9.2,60,0.00,,---,0.00,VWS V14.01,2013-05-29 06:53:00,
2013-05-29 00:54:00,60.6,46.8,29.67,ENE,60,4.7,9.2,60,0.00,,---,6.83,VWS V14.01,2013-05-29 06:54:00,
2013-05-29 00:55:00,64.6,38.3,29.63,ENE,66,5.0,114.4,38,0.00,,---,0.00,VWS V14.01,2013-05-29 06:55:00,
2013-05-29 00:57:00,62.0,-3.4,29.96,North,0,6.6,14.4,7,0.00,,---,0.02,VWS V14.01,2013-05-29 06:57:00,
2013-05-29 01:00:00,0.3,-8.3,36.21,North,0,0.0,6.3,66,0.00,,---,0.16,VWS V14.01,2013-05-29 07:00:00,
2013-05-29 01:02:00,62.3,33.4,29.65,North,4,7.3,7.8,34,0.00,,---,0.02,VWS V14.01,2013-05-29 07:02:00,
2013-05-29 01:04:00,56.5,-7.5,1.30,NNE,22,0.0,15.8,7,0.00,,---,0.02,VWS V14.01,2013-05-29 07:04:00,
2013-05-29 01:05:00,62.0,45.9,0.00,East,90,0.0,0.0,56,0.00,,---,5.61,VWS V14.01,2013-05-29 07:05:00,
2013-05-29 01:07:00,55.9,-7.9,1.26,NE,55,3.1,10.6,7,0.00,,---,6.33,VWS V14.01,2013-05-29 07:07:00,
2013-05-29 01:10:00,63.7,33.5,29.64,East,98,3.0,6.3,32,0.00,,---,0.02,VWS V14.01,2013-05-29 07:10:00,
2013-05-29 01:11:00,60.5,0.0,0.00,ENE,62,0.0,0.0,0,0.00,,---,6.95,VWS V14.01,2013-05-29 07:11:00,
2013-05-29 01:13:00,59.1,31.9,29.71,NNW,332,0.0,9.2,36,0.00,,---,0.02,VWS V14.01,2013-05-29 07:13:00,
2013-05-29 01:16:00,59.6,48.4,29.67,East,79,2.9,3.3,66,0.00,,---,0.00,VWS V14.01,2013-05-29 07:16:00,
2013-05-29 01:21:00,59.3,48.0,29.67,NNE,17,3.4,4.6,66,0.00,,---,0.00,VWS V14.01,2013-05-29 07:21:00,
2013-05-29 01:26:00,59.0,48.2,29.67,North,11,0.0,0.0,67,0.00,,---,0.00,VWS V14.01,2013-05-29 07:26:00,
2013-05-29 01:30:00,62.2,32.3,29.65,North,354,5.0,10.2,32,0.00,,---,0.02,VWS V14.01,2013-05-29 07:30:00,
2013-05-29 01:31:00,58.7,48.3,29.67,North,4,0.0,3.4,68,0.00,,---,0.00,VWS V14.01,2013-05-29 07:31:00,
2013-05-29 01:32:00,61.7,-3.6,1.25,NW,325,3.2,8.1,7,0.00,,---,0.02,VWS V14.01,2013-05-29 07:32:00,
2013-05-29 01:36:00,58.3,48.2,29.67,North,359,0.0,0.0,69,0.00,,---,0.00,VWS V14.01,2013-05-29 07:36:00,
2013-05-29 01:41:00,58.1,48.3,29.67,NNE,28,0.0,0.0,70,0.00,,---,0.00,VWS V14.01,2013-05-29 07:41:00,
2013-05-29 01:46:00,58.0,48.4,29.68,NNE,28,0.0,0.0,70,0.00,,---,0.00,VWS V14.01,2013-05-29 07:46:00,
2013-05-29 01:47:00,63.6,-2.2,29.64,ESE,107,6.3,14.4,7,0.00,,---,0.02,VWS V14.01,2013-05-29 07:47:00,
2013-05-29 01:51:00,58.0,48.5,29.68,North,8,0.0,0.0,71,0.00,,---,0.00,VWS V14.01,2013-05-29 07:51:00,
2013-05-29 01:52:00,64.9,-1.3,29.64,East,97,5.2,15.5,7,0.00,,---,0.02,VWS V14.01,2013-05-29 07:52:00,
2013-05-29 01:56:00,58.4,48.8,29.68,North,8,0.0,0.0,70,0.00,,---,0.00,VWS V14.01,2013-05-29 07:56:00,
2013-05-29 01:59:00,58.5,48.3,29.68,North,8,0.0,0.0,69,0.00,,---,0.00,VWS V14.01,2013-05-29 07:59:00,
2013-05-29 02:01:00,58.5,48.3,29.68,North,8,0.0,0.0,69,0.00,,---,0.00,VWS V14.01,2013-05-29 08:01:00,
2013-05-29 02:06:00,58.5,48.3,29.68,North,8,0.0,0.0,69,0.00,,---,0.00,VWS V14.01,2013-05-29 08:06:00,
2013-05-29 02:23:00,63.5,-2.3,29.64,NW,323,9.3,14.4,7,0.00,,---,0.02,VWS V14.01,2013-05-29 08:23:00,
2013-05-29 02:28:00,65.6,36.1,29.64,WNW,301,0.0,13.3,34,0.00,,---,4.70,VWS V14.01,2013-05-29 08:28:00,
2013-05-29 02:59:00,63.9,-2.0,29.90,North,359,7.0,17.7,7,0.00,,---,0.02,VWS V14.01,2013-05-29 08:59:00,
2013-05-29 03:00:00,58.5,48.3,29.68,North,8,0.0,0.0,69,0.00,,---,0.00,VWS V14.01,2013-05-29 09:00:00,
2013-05-29 03:05:00,58.5,48.3,29.68,North,8,0.0,0.0,69,0.00,,---,0.00,VWS V14.01,2013-05-29 09:05:00,
2013-05-29 03:06:00,72.8,0.0,2.13,NW,326,0.0,14.4,0,0.00,,---,0.00,VWS V14.01,2013-05-29 09:06:00,
2013-05-29 03:07:00,58.0,15.9,29.74,North,356,0.0,14.4,19,0.00,,---,0.00,VWS V14.01,2013-05-29 09:07:00,
2013-05-29 03:18:00,63.6,33.5,29.64,NNE,25,10.4,14.4,32,0.00,,---,2.53,VWS V14.01,2013-05-29 09:18:00,
2013-05-29 03:33:00,57.4,-6.8,1.38,NW,325,0.0,0.0,7,0.00,,---,0.00,VWS V14.01,2013-05-29 09:33:00,
2013-05-29 03:37:00,63.5,33.5,29.64,NNW,339,9.1,14.4,32,0.00,,---,6.50,VWS V14.01,2013-05-29 09:37:00,
2013-05-29 03:43:00,60.8,33.2,29.66,NW,314,0.0,10.0,35,0.00,,---,6.23,VWS V14.01,2013-05-29 09:43:00,
2013-05-29 03:44:00,57.6,0.0,1.72,NNE,20,5.5,10.7,0,0.00,,---,0.00,VWS V14.01,2013-05-29 09:44:00,
2013-05-29 03:49:00,59.4,32.8,29.69,NW,322,0.0,12.9,36,0.00,,---,6.09,VWS V14.01,2013-05-29 09:49:00,
2013-05-29 03:51:00,21.4,11.3,36.21,East,94,5.5,9.2,64,0.00,,---,99.99,VWS V14.01,2013-05-29 09:51:00,
2013-05-29 03:52:00,57.9,31.1,29.73,NW,326,0.0,0.0,36,0.00,,---,5.94,VWS V14.01,2013-05-29 09:52:00,
2013-05-29 03:56:00,59.1,31.7,29.71,NNW,332,0.0,14.4,35,0.00,,---,6.06,VWS V14.01,2013-05-29 09:56:00,
2013-05-29 03:58:00,13.3,-8.4,0.01,North,0,11.7,11.7,36,0.00,,---,6.24,VWS V14.01,2013-05-29 09:58:00,
2013-05-29 03:59:00,57.3,33.2,29.76,NNW,336,0.0,14.4,40,0.00,,---,5.88,VWS V14.01,2013-05-29 09:59:00,
2013-05-29 04:02:00,58.1,32.0,29.72,NNW,340,0.0,13.2,37,0.00,,---,5.96,VWS V14.01,2013-05-29 10:02:00,
2013-05-29 04:13:00,59.3,32.0,0.01,North,356,0.0,14.4,36,0.00,,---,0.02,VWS V14.01,2013-05-29 10:13:00,
2013-05-29 04:15:00,62.0,33.8,29.66,North,359,0.0,14.4,35,0.00,,---,6.35,VWS V14.01,2013-05-29 10:15:00,
2013-05-29 06:24:00,56.9,47.6,29.73,SSW,201,0.0,0.0,71,0.00,,---,0.00,VWS V14.01,2013-05-29 12:24:00,
2013-05-29 06:25:00,56.9,47.6,29.73,SSW,201,0.0,0.0,71,0.00,,---,0.00,VWS V14.01,2013-05-29 12:25:00,
2013-05-29 06:26:00,56.9,47.6,29.73,SSW,201,0.0,0.0,71,0.00,,---,0.00,VWS V14.01,2013-05-29 12:26:00,
2013-05-29 06:27:00,56.9,47.6,29.73,SSE,152,0.0,0.0,71,0.00,,---,0.00,VWS V14.01,2013-05-29 12:27:00,
2013-05-29 06:52:00,64.9,40.5,29.64,North,350,14.5,15.5,41,0.00,,---,0.00,VWS V14.01,2013-05-29 12:52:00,
2013-05-29 06:53:00,56.4,48.0,29.73,ESE,115,0.0,0.0,73,0.00,,---,0.01,VWS V14.01,2013-05-29 12:53:00,
2013-05-29 06:54:00,56.4,47.8,29.73,ESE,115,0.0,0.0,73,0.01,,---,0.01,VWS V14.01,2013-05-29 12:54:00,
2013-05-29 06:55:00,56.3,47.6,29.73,ESE,115,0.0,0.0,72,0.01,,---,0.01,VWS V14.01,2013-05-29 12:55:00,
2013-05-29 06:56:00,56.3,47.6,29.73,ESE,115,0.0,0.0,73,0.01,,---,0.01,VWS V14.01,2013-05-29 12:56:00,
2013-05-29 06:57:00,56.4,47.7,29.73,ESE,115,0.0,0.0,72,0.01,,---,0.01,VWS V14.01,2013-05-29 12:57:00,
2013-05-29 06:58:00,56.4,47.7,29.73,ESE,115,0.0,0.0,72,0.01,,---,0.01,VWS V14.01,2013-05-29 12:58:00,
2013-05-29 06:59:00,56.3,47.5,29.73,ESE,115,0.0,0.0,72,0.01,,---,0.01,VWS V14.01,2013-05-29 12:59:00,
2013-05-29 07:00:00,56.4,47.7,29.73,ESE,115,0.0,0.0,72,0.01,,---,0.01,VWS V14.01,2013-05-29 13:00:00,
2013-05-29 07:01:00,56.4,47.8,29.73,ESE,115,0.0,0.0,73,0.01,,---,0.01,VWS V14.01,2013-05-29 13:01:00,
2013-05-29 07:02:00,56.4,47.9,29.72,ESE,115,0.0,0.0,73,0.01,,---,0.01,VWS V14.01,2013-05-29 13:02:00,
2013-05-29 07:03:00,56.4,47.8,29.72,ESE,115,0.0,0.0,73,0.01,,---,0.01,VWS V14.01,2013-05-29 13:03:00,
2013-05-29 07:04:00,56.5,48.0,29.72,ESE,115,0.0,0.0,73,0.01,,---,0.01,VWS V14.01,2013-05-29 13:04:00,
2013-05-29 07:05:00,56.5,48.0,29.72,ESE,115,0.0,0.0,73,0.01,,---,0.01,VWS V14.01,2013-05-29 13:05:00,
2013-05-29 07:06:00,62.0,33.8,1.87,North,0,0.0,8.6,35,0.00,,---,0.00,VWS V14.01,2013-05-29 13:06:00,
2013-05-29 07:07:00,61.8,33.7,29.66,NE,55,0.0,10.6,35,0.00,,---,0.02,VWS V14.01,2013-05-29 13:07:00,
2013-05-29 07:08:00,56.4,47.8,29.72,ESE,115,0.0,0.0,73,0.01,,---,0.01,VWS V14.01,2013-05-29 13:08:00,
2013-05-29 07:09:00,61.9,33.9,29.66,North,359,0.0,0.0,35,0.00,,---,0.00,VWS V14.01,2013-05-29 13:09:00,
2013-05-29 07:10:00,56.5,48.0,29.72,ESE,115,0.0,0.0,73,0.01,,---,0.01,VWS V14.01,2013-05-29 13:10:00,
2013-05-29 07:11:00,56.5,48.1,29.72,ESE,115,0.0,0.0,73,0.01,,---,0.01,VWS V14.01,2013-05-29 13:11:00,
2013-05-29 07:12:00,59.2,31.7,29.70,NW,312,0.0,14.4,35,0.00,,---,0.00,VWS V14.01,2013-05-29 13:12:00,
2013-05-29 07:13:00,59.1,35.3,29.70,North,359,0.0,0.0,41,0.00,,---,0.00,VWS V14.01,2013-05-29 13:13:00,
2013-05-29 07:14:00,56.6,48.2,29.72,ESE,115,0.0,0.0,74,0.01,,---,0.01,VWS V14.01,2013-05-29 13:14:00,
2013-05-29 07:15:00,49.7,3.5,0.67,NW,319,0.0,5.1,15,0.00,,---,0.00,VWS V14.01,2013-05-29 13:15:00,
2013-05-29 07:16:00,57.8,30.8,29.74,NNW,340,4.6,14.4,36,0.00,,---,0.00,VWS V14.01,2013-05-29 13:16:00,
2013-05-29 07:17:00,49.7,0.0,0.71,NNW,336,0.0,12.8,0,0.00,,---,0.00,VWS V14.01,2013-05-29 13:17:00,
2013-05-29 07:18:00,59.0,35.2,29.71,NE,42,0.0,14.4,41,0.00,,---,0.00,VWS V14.01,2013-05-29 13:18:00,
2013-05-29 07:19:00,57.1,48.4,29.72,ESE,115,0.0,0.0,73,0.01,,---,0.01,VWS V14.01,2013-05-29 13:19:00,
2013-05-29 07:20:00,57.3,48.5,29.72,ESE,115,0.0,0.0,72,0.01,,---,0.01,VWS V14.01,2013-05-29 13:20:00,
2013-05-29 07:21:00,57.3,48.4,29.72,ESE,115,0.0,0.0,72,0.01,,---,0.01,VWS V14.01,2013-05-29 13:21:00,
2013-05-29 07:22:00,59.4,32.6,29.69,NW,322,0.0,0.0,36,0.00,,---,0.00,VWS V14.01,2013-05-29 13:22:00,
2013-05-29 07:23:00,58.0,31.4,30.23,North,359,0.0,4.2,36,0.00,,---,0.00,VWS V14.01,2013-05-29 13:23:00,
2013-05-29 07:24:00,57.4,48.4,29.72,ESE,115,0.0,0.0,72,0.01,,---,0.01,VWS V14.01,2013-05-29 13:24:00,
2013-05-29 07:25:00,64.5,37.3,0.01,NE,42,0.0,13.2,36,0.00,,---,0.00,VWS V14.01,2013-05-29 13:25:00,
2013-05-29 07:26:00,57.9,31.5,30.17,North,3,0.0,1.1,37,0.00,,---,0.00,VWS V14.01,2013-05-29 13:26:00,
2013-05-29 07:27:00,57.7,48.4,29.72,SE,131,0.0,0.0,71,0.01,,---,0.01,VWS V14.01,2013-05-29 13:27:00,
2013-05-29 07:28:00,59.5,33.1,29.69,North,359,0.0,14.4,37,0.00,,---,0.00,VWS V14.01,2013-05-29 13:28:00,
2013-05-29 07:29:00,57.7,48.3,29.72,SE,131,0.0,0.0,71,0.01,,---,0.01,VWS V14.01,2013-05-29 13:29:00,
2013-05-29 07:30:00,57.6,48.1,29.72,SE,131,0.0,0.0,71,0.00,,---,0.01,VWS V14.01,2013-05-29 13:30:00,
2013-05-29 07:31:00,57.9,31.9,0.75,North,356,0.0,13.0,37,0.00,,---,0.00,VWS V14.01,2013-05-29 13:31:00,
2013-05-29 07:32:00,57.6,48.0,29.71,SE,131,0.0,0.0,70,0.00,,---,0.01,VWS V14.01,2013-05-29 13:32:00,
2013-05-29 07:33:00,24.0,1.5,36.21,North,0,0.0,12.1,37,0.00,,---,0.00,VWS V14.01,2013-05-29 13:33:00,
2013-05-29 07:34:00,57.6,48.0,29.71,SE,131,0.0,0.0,70,0.00,,---,0.01,VWS V14.01,2013-05-29 13:34:00,
2013-05-29 07:35:00,57.5,48.1,29.71,SE,131,0.0,0.0,71,0.00,,---,0.01,VWS V14.01,2013-05-29 13:35:00,
2013-05-29 07:36:00,57.5,48.0,29.71,SE,131,0.0,0.0,71,0.00,,---,0.01,VWS V14.01,2013-05-29 13:36:00,
2013-05-29 07:37:00,57.5,48.1,29.71,SE,131,0.0,0.0,71,0.00,,---,0.01,VWS V14.01,2013-05-29 13:37:00,
2013-05-29 07:38:00,57.6,48.2,29.71,SE,131,0.0,0.0,71,0.00,,---,0.01,VWS V14.01,2013-05-29 13:38:00,
2013-05-29 07:39:00,57.5,48.1,29.71,SE,131,0.0,0.0,71,0.00,,---,0.01,VWS V14.01,2013-05-29 13:39:00,
2013-05-29 07:40:00,57.7,48.2,29.71,SE,131,0.0,0.0,70,0.00,,---,0.01,VWS V14.01,2013-05-29 13:40:00,
2013-05-29 07:41:00,57.8,48.3,29.71,SE,131,0.0,0.0,71,0.00,,---,0.01,VWS V14.01,2013-05-29 13:41:00,
2013-05-29 07:42:00,57.9,48.2,29.71,SE,131,0.0,0.0,70,0.00,,---,0.01,VWS V14.01,2013-05-29 13:42:00,
2013-05-29 07:43:00,57.9,48.1,29.71,SE,131,0.0,0.0,70,0.00,,---,0.01,VWS V14.01,2013-05-29 13:43:00,
2013-05-29 07:44:00,57.8,48.2,29.71,SE,131,0.0,0.0,70,0.00,,---,0.01,VWS V14.01,2013-05-29 13:44:00,
2013-05-29 07:45:00,58.0,48.0,29.71,SE,131,0.0,0.0,69,0.00,,---,0.01,VWS V14.01,2013-05-29 13:45:00,
2013-05-29 07:46:00,58.0,47.8,29.71,SE,131,0.0,0.0,69,0.00,,---,0.01,VWS V14.01,2013-05-29 13:46:00,
2013-05-29 07:47:00,58.1,48.1,29.71,SE,131,0.0,0.0,69,0.00,,---,0.01,VWS V14.01,2013-05-29 13:47:00,
2013-05-29 07:48:00,58.4,48.5,29.71,SE,131,0.0,0.0,70,0.00,,---,0.01,VWS V14.01,2013-05-29 13:48:00,
2013-05-29 07:49:00,58.0,47.8,29.71,SE,131,0.0,0.0,69,0.00,,---,0.01,VWS V14.01,2013-05-29 13:49:00,
2013-05-29 07:50:00,70.2,44.1,0.00,NNW,336,14.4,14.4,39,0.00,,---,0.00,VWS V14.01,2013-05-29 13:50:00,
2013-05-29 07:51:00,58.6,48.2,29.71,SE,131,0.0,0.0,68,0.00,,---,0.01,VWS V14.01,2013-05-29 13:51:00,
2013-05-29 07:52:00,58.7,48.1,29.71,SE,131,0.0,0.0,68,0.00,,---,0.01,VWS V14.01,2013-05-29 13:52:00,
2013-05-29 07:53:00,58.8,48.2,29.71,SE,131,0.0,0.0,68,0.00,,---,0.01,VWS V14.01,2013-05-29 13:53:00,
2013-05-29 07:54:00,58.6,48.2,29.71,SE,131,0.0,0.0,68,0.00,,---,0.01,VWS V14.01,2013-05-29 13:54:00,
2013-05-29 07:55:00,58.9,48.1,29.71,SE,131,0.0,0.0,67,0.00,,---,0.01,VWS V14.01,2013-05-29 13:55:00,
2013-05-29 07:56:00,59.0,48.2,29.71,SE,131,0.0,0.0,67,0.00,,---,0.01,VWS V14.01,2013-05-29 13:56:00,
2013-05-29 07:57:00,58.9,47.9,29.71,SE,131,0.0,0.0,67,0.00,,---,0.01,VWS V14.01,2013-05-29 13:57:00,
2013-05-29 07:58:00,59.0,47.9,29.71,SE,131,0.0,0.0,67,0.00,,---,0.01,VWS V14.01,2013-05-29 13:58:00,
2013-05-29 07:59:00,58.9,47.9,29.71,SE,131,0.0,0.0,67,0.00,,---,0.01,VWS V14.01,2013-05-29 13:59:00,
2013-05-29 08:00:00,57.3,33.2,29.76,NNW,336,0.0,14.4,40,0.00,,---,0.02,VWS V14.01,2013-05-29 14:00:00,
2013-05-29 08:01:00,58.8,47.6,29.71,SE,124,0.0,0.0,66,0.00,,---,0.01,VWS V14.01,2013-05-29 14:01:00,
2013-05-29 08:02:00,58.7,47.5,29.71,SE,124,0.0,0.0,66,0.00,,---,0.01,VWS V14.01,2013-05-29 14:02:00,
2013-05-29 08:03:00,58.7,47.6,29.71,SE,124,0.0,0.0,66,0.00,,---,0.01,VWS V14.01,2013-05-29 14:03:00,
2013-05-29 08:04:00,58.7,47.6,29.71,SE,124,0.0,0.0,66,0.00,,---,0.01,VWS V14.01,2013-05-29 14:04:00,
2013-05-29 08:05:00,58.7,47.9,29.71,SE,124,0.0,0.0,67,0.00,,---,0.01,VWS V14.01,2013-05-29 14:05:00,
2013-05-29 08:06:00,57.2,33.5,0.71,NNW,336,0.0,9.2,41,0.00,,---,0.00,VWS V14.01,2013-05-29 14:06:00,
2013-05-29 08:07:00,57.1,33.5,29.76,NNW,336,0.0,14.4,41,0.00,,---,13.51,VWS V14.01,2013-05-29 14:07:00,
2013-05-29 08:08:00,58.6,47.9,29.71,SE,124,0.0,0.0,68,0.00,,---,0.01,VWS V14.01,2013-05-29 14:08:00,
2013-05-29 08:09:00,58.6,47.9,29.71,SE,124,0.0,0.0,68,0.00,,---,0.01,VWS V14.01,2013-05-29 14:09:00,
2013-05-29 08:10:00,58.8,48.2,29.71,SE,124,0.0,0.0,68,0.00,,---,0.01,VWS V14.01,2013-05-29 14:10:00,
2013-05-29 08:11:00,58.9,48.2,29.71,SE,124,0.0,0.0,68,0.00,,---,0.01,VWS V14.01,2013-05-29 14:11:00,
2013-05-29 08:12:00,59.0,48.3,29.71,SE,124,0.0,0.0,68,0.00,,---,0.01,VWS V14.01,2013-05-29 14:12:00,
2013-05-29 08:13:00,59.0,48.1,29.71,SE,124,0.0,0.0,67,0.00,,---,0.01,VWS V14.01,2013-05-29 14:13:00,
2013-05-29 08:14:00,58.9,48.0,29.71,SE,124,0.0,0.0,67,0.00,,---,0.01,VWS V14.01,2013-05-29 14:14:00,
2013-05-29 08:15:00,59.0,47.9,29.71,SE,124,0.0,0.0,67,0.00,,---,0.01,VWS V14.01,2013-05-29 14:15:00,
2013-05-29 08:16:00,59.1,47.9,29.71,SE,124,0.0,0.0,66,0.00,,---,0.01,VWS V14.01,2013-05-29 14:16:00,
2013-05-29 08:17:00,59.0,47.8,29.71,SE,124,0.0,0.0,66,0.00,,---,0.01,VWS V14.01,2013-05-29 14:17:00,
2013-05-29 08:18:00,59.0,47.7,29.71,SE,124,0.0,0.0,66,0.00,,---,0.01,VWS V14.01,2013-05-29 14:18:00,
2013-05-29 08:19:00,59.0,47.7,29.71,SE,124,0.0,0.0,66,0.00,,---,0.01,VWS V14.01,2013-05-29 14:19:00,
2013-05-29 08:20:00,59.0,47.8,29.71,SE,124,0.0,0.0,66,0.00,,---,0.01,VWS V14.01,2013-05-29 14:20:00,
2013-05-29 08:21:00,58.9,47.7,29.71,SE,124,0.0,0.0,66,0.00,,---,0.01,VWS V14.01,2013-05-29 14:21:00,
2013-05-29 08:22:00,59.0,47.8,29.71,SE,124,0.0,0.0,66,0.00,,---,0.01,VWS V14.01,2013-05-29 14:22:00,
2013-05-29 08:23:00,58.9,47.8,29.71,SE,124,0.0,0.0,67,0.00,,---,0.01,VWS V14.01,2013-05-29 14:23:00,
2013-05-29 08:24:00,58.9,47.8,29.71,SE,124,0.0,0.0,67,0.00,,---,0.01,VWS V14.01,2013-05-29 14:24:00,
2013-05-29 08:25:00,58.9,47.9,29.71,SE,124,0.0,0.0,67,0.00,,---,0.01,VWS V14.01,2013-05-29 14:25:00,
2013-05-29 08:26:00,58.9,48.3,29.71,SE,124,0.0,0.0,68,0.00,,---,0.01,VWS V14.01,2013-05-29 14:26:00,
2013-05-29 08:27:00,59.0,48.1,29.71,SE,124,0.0,0.0,67,0.00,,---,0.01,VWS V14.01,2013-05-29 14:27:00,
2013-05-29 08:28:00,58.8,47.6,29.71,SE,124,0.0,0.0,66,0.00,,---,0.01,VWS V14.01,2013-05-29 14:28:00,
2013-05-29 08:29:00,58.8,47.6,29.71,SE,124,0.0,0.0,66,0.00,,---,0.01,VWS V14.01,2013-05-29 14:29:00,
2013-05-29 08:30:00,58.6,47.2,29.71,SE,124,0.0,0.0,66,0.00,,---,0.01,VWS V14.01,2013-05-29 14:30:00,
2013-05-29 08:31:00,58.4,47.1,29.71,SE,124,0.0,0.0,66,0.00,,---,0.01,VWS V14.01,2013-05-29 14:31:00,
2013-05-29 08:32:00,58.3,47.0,29.71,SE,124,0.0,0.0,66,0.00,,---,0.01,VWS V14.01,2013-05-29 14:32:00,
2013-05-29 08:33:00,58.1,47.0,29.71,SE,124,0.0,0.0,66,0.00,,---,0.01,VWS V14.01,2013-05-29 14:33:00,
2013-05-29 08:34:00,58.1,47.0,29.71,SE,124,0.0,0.0,66,0.00,,---,0.01,VWS V14.01,2013-05-29 14:34:00,
2013-05-29 08:35:00,57.9,47.1,29.71,SE,124,0.0,0.0,67,0.00,,---,0.01,VWS V14.01,2013-05-29 14:35:00,
2013-05-29 08:36:00,58.0,47.2,29.71,SE,124,0.0,0.0,67,0.00,,---,0.01,VWS V14.01,2013-05-29 14:36:00,
2013-05-29 08:37:00,57.9,47.2,29.71,SE,124,0.0,0.0,68,0.00,,---,0.01,VWS V14.01,2013-05-29 14:37:00,
2013-05-29 08:38:00,57.9,47.5,29.71,SE,124,0.0,0.0,68,0.00,,---,0.01,VWS V14.01,2013-05-29 14:38:00,
2013-05-29 08:39:00,57.9,47.5,29.71,SE,124,0.0,0.0,68,0.00,,---,0.01,VWS V14.01,2013-05-29 14:39:00,
2013-05-29 08:40:00,58.0,47.6,29.71,SE,124,0.0,0.0,68,0.00,,---,0.01,VWS V14.01,2013-05-29 14:40:00,
2013-05-29 08:41:00,58.0,47.6,29.71,SE,124,0.0,0.0,68,0.00,,---,0.01,VWS V14.01,2013-05-29 14:41:00,
2013-05-29 08:42:00,58.0,47.5,29.71,SE,124,0.0,0.0,68,0.00,,---,0.01,VWS V14.01,2013-05-29 14:42:00,
2013-05-29 08:43:00,58.0,47.5,29.71,SE,124,0.0,0.0,68,0.00,,---,0.01,VWS V14.01,2013-05-29 14:43:00,
2013-05-29 08:44:00,58.0,47.5,29.71,SE,124,0.0,0.0,68,0.00,,---,0.01,VWS V14.01,2013-05-29 14:44:00,
2013-05-29 08:45:00,58.0,47.5,29.71,SE,124,0.0,0.0,68,0.00,,---,0.01,VWS V14.01,2013-05-29 14:45:00,
2013-05-29 08:46:00,57.9,47.6,29.71,SE,124,0.0,0.0,68,0.00,,---,0.01,VWS V14.01,2013-05-29 14:46:00,
2013-05-29 08:47:00,58.0,47.7,29.71,SE,124,0.0,0.0,68,0.00,,---,0.01,VWS V14.01,2013-05-29 14:47:00,
2013-05-29 08:48:00,58.0,47.6,29.71,SE,124,0.0,0.0,68,0.00,,---,0.01,VWS V14.01,2013-05-29 14:48:00,
2013-05-29 08:49:00,58.0,47.6,29.71,SE,124,0.0,0.0,68,0.00,,---,0.01,VWS V14.01,2013-05-29 14:49:00,
2013-05-29 08:50:00,57.9,47.4,29.71,SE,124,0.0,0.0,68,0.00,,---,0.01,VWS V14.01,2013-05-29 14:50:00,
2013-05-29 08:51:00,57.9,47.3,29.71,SE,124,0.0,0.0,68,0.00,,---,0.01,VWS V14.01,2013-05-29 14:51:00,
2013-05-29 08:52:00,58.0,47.6,29.71,SE,124,0.0,0.0,68,0.00,,---,0.01,VWS V14.01,2013-05-29 14:52:00,
2013-05-29 08:53:00,57.9,47.3,29.71,SE,124,0.0,0.0,68,0.00,,---,0.01,VWS V14.01,2013-05-29 14:53:00,
2013-05-29 08:54:00,57.9,47.3,29.71,SE,124,0.0,0.0,68,0.00,,---,0.01,VWS V14.01,2013-05-29 14:54:00,
2013-05-29 08:55:00,57.8,47.3,29.71,SE,124,0.0,0.0,68,0.00,,---,0.01,VWS V14.01,2013-05-29 14:55:00,
2013-05-29 08:56:00,57.7,47.3,29.71,SE,124,2.7,2.7,68,0.00,,---,0.01,VWS V14.01,2013-05-29 14:56:00,
2013-05-29 08:57:00,57.7,47.4,29.71,SE,124,0.0,0.0,68,0.00,,---,0.01,VWS V14.01,2013-05-29 14:57:00,
2013-05-29 08:58:00,57.6,47.4,29.71,SE,124,0.0,0.0,69,0.00,,---,0.01,VWS V14.01,2013-05-29 14:58:00,
2013-05-29 08:59:00,57.6,47.4,29.71,SE,124,0.0,0.0,69,0.00,,---,0.01,VWS V14.01,2013-05-29 14:59:00,
2013-05-29 09:00:00,57.4,47.2,29.71,SE,124,0.0,0.0,69,0.00,,---,0.01,VWS V14.01,2013-05-29 15:00:00,
2013-05-29 09:01:00,57.3,47.2,29.71,SE,124,0.0,0.0,69,0.00,,---,0.01,VWS V14.01,2013-05-29 15:01:00,
2013-05-29 09:02:00,57.3,47.2,29.71,SE,124,0.0,0.0,69,0.00,,---,0.01,VWS V14.01,2013-05-29 15:02:00,
2013-05-29 09:03:00,57.3,47.3,29.71,SE,124,0.0,0.0,69,0.00,,---,0.01,VWS V14.01,2013-05-29 15:03:00,
2013-05-29 09:04:00,57.3,47.3,29.71,SE,124,0.0,0.0,69,0.00,,---,0.01,VWS V14.01,2013-05-29 15:04:00,
2013-05-29 09:05:00,57.0,47.6,29.71,SE,124,0.0,0.0,71,0.00,,---,0.01,VWS V14.01,2013-05-29 15:05:00,
2013-05-29 09:06:00,56.9,47.9,29.71,North,7,3.5,5.7,72,0.00,,---,0.01,VWS V14.01,2013-05-29 15:06:00,
2013-05-29 09:07:00,56.8,48.2,29.71,North,6,7.1,8.6,73,0.00,,---,0.01,VWS V14.01,2013-05-29 15:07:00,
2013-05-29 09:08:00,56.6,48.3,29.70,NNW,333,3.5,5.7,74,0.00,,---,0.01,VWS V14.01,2013-05-29 15:08:00,
2013-05-29 09:09:00,56.6,48.3,29.70,NNW,333,3.5,5.6,74,0.00,,---,0.01,VWS V14.01,2013-05-29 15:09:00,
2013-05-29 09:10:00,56.4,48.8,29.70,North,357,0.0,0.0,76,0.00,,---,0.01,VWS V14.01,2013-05-29 15:10:00,
2013-05-29 09:11:00,56.4,49.0,29.70,North,7,6.1,6.1,76,0.00,,---,0.01,VWS V14.01,2013-05-29 15:11:00,
2013-05-29 09:12:00,56.3,49.0,29.70,NNE,28,2.2,4.2,76,0.00,,---,0.01,VWS V14.01,2013-05-29 15:12:00,
2013-05-29 09:13:00,56.1,49.0,29.70,NNE,27,6.3,6.8,77,0.00,,---,0.01,VWS V14.01,2013-05-29 15:13:00,
2013-05-29 09:14:00,56.1,49.0,29.70,NNE,27,5.5,6.8,77,0.00,,---,0.01,VWS V14.01,2013-05-29 15:14:00,
2013-05-29 09:15:00,55.9,49.2,29.71,North,359,4.5,10.0,78,0.00,,---,0.01,VWS V14.01,2013-05-29 15:15:00,
2013-05-29 09:16:00,55.8,49.3,29.70,North,8,3.0,5.7,79,0.00,,---,0.01,VWS V14.01,2013-05-29 15:16:00,
2013-05-29 09:17:00,55.7,49.3,29.71,North,1,0.0,0.0,79,0.00,,---,0.01,VWS V14.01,2013-05-29 15:17:00,
2013-05-29 09:18:00,55.7,49.4,29.71,North,1,0.0,0.0,79,0.00,,---,0.01,VWS V14.01,2013-05-29 15:18:00,
2013-05-29 09:19:00,55.7,49.4,29.71,North,1,0.0,0.0,79,0.00,,---,0.01,VWS V14.01,2013-05-29 15:19:00,
2013-05-29 09:20:00,55.6,49.5,29.71,North,359,0.0,2.5,80,0.00,,---,0.01,VWS V14.01,2013-05-29 15:20:00,
2013-05-29 09:21:00,55.6,49.6,29.71,NNE,31,4.3,6.5,80,0.00,,---,0.01,VWS V14.01,2013-05-29 15:21:00,
2013-05-29 09:22:00,55.4,49.4,29.71,North,359,0.0,3.0,80,0.00,,---,0.01,VWS V14.01,2013-05-29 15:22:00,
2013-05-29 09:23:00,55.4,49.6,29.71,NNW,336,5.2,6.1,81,0.00,,---,0.01,VWS V14.01,2013-05-29 15:23:00,
2013-05-29 09:24:00,55.4,49.6,29.71,NNW,339,5.8,5.8,81,0.00,,---,0.01,VWS V14.01,2013-05-29 15:24:00,
2013-05-29 09:25:00,55.2,49.5,29.71,North,4,0.0,0.0,81,0.00,,---,0.01,VWS V14.01,2013-05-29 15:25:00,
2013-05-29 09:26:00,55.2,49.7,29.71,WSW,243,2.9,2.9,82,0.00,,---,0.01,VWS V14.01,2013-05-29 15:26:00,
2013-05-29 09:27:00,55.2,49.8,29.71,NW,316,0.0,4.6,82,0.00,,---,0.01,VWS V14.01,2013-05-29 15:27:00,
2013-05-29 09:28:00,55.2,49.8,29.71,NW,316,0.0,0.0,82,0.00,,---,0.01,VWS V14.01,2013-05-29 15:28:00,
2013-05-29 09:29:00,55.2,49.8,29.71,NW,316,0.0,0.0,82,0.00,,---,0.01,VWS V14.01,2013-05-29 15:29:00,
2013-05-29 09:30:00,55.2,50.0,29.71,WNW,292,0.0,0.0,83,0.00,,---,0.01,VWS V14.01,2013-05-29 15:30:00,
2013-05-29 09:31:00,55.2,50.1,29.71,WNW,292,0.0,0.0,83,0.00,,---,0.01,VWS V14.01,2013-05-29 15:31:00,
2013-05-29 09:32:00,55.4,50.3,29.71,WNW,292,0.0,0.0,83,0.00,,---,0.01,VWS V14.01,2013-05-29 15:32:00,
2013-05-29 09:33:00,55.3,50.3,29.71,WNW,292,0.0,0.0,83,0.00,,---,0.01,VWS V14.01,2013-05-29 15:33:00,
2013-05-29 09:34:00,55.3,50.2,29.71,WNW,292,0.0,0.0,83,0.00,,---,0.01,VWS V14.01,2013-05-29 15:34:00,
2013-05-29 09:35:00,55.2,50.3,29.72,NW,321,0.0,0.0,84,0.00,,---,0.01,VWS V14.01,2013-05-29 15:35:00,
2013-05-29 09:36:00,55.3,50.5,29.71,NW,321,0.0,0.0,84,0.00,,---,0.01,VWS V14.01,2013-05-29 15:36:00,
2013-05-29 09:37:00,55.2,50.5,29.71,NW,321,0.0,0.0,84,0.00,,---,0.01,VWS V14.01,2013-05-29 15:37:00,
2013-05-29 09:38:00,55.2,50.7,29.71,NNE,20,3.3,5.1,85,0.00,,---,0.01,VWS V14.01,2013-05-29 15:38:00,
2013-05-29 09:39:00,55.3,50.5,29.71,NW,321,0.0,0.0,84,0.00,,---,0.01,VWS V14.01,2013-05-29 15:39:00,
2013-05-29 09:40:00,54.8,50.3,29.70,East,94,5.6,5.6,85,0.00,,---,0.01,VWS V14.01,2013-05-29 15:40:00,
2013-05-29 09:41:00,54.5,50.2,29.69,NE,37,4.5,4.7,86,0.00,,---,0.01,VWS V14.01,2013-05-29 15:41:00,
2013-05-29 09:42:00,54.4,50.3,29.69,SE,136,2.6,4.7,86,0.00,,---,0.01,VWS V14.01,2013-05-29 15:42:00,
2013-05-29 09:43:00,54.2,50.3,29.70,ENE,68,0.0,0.0,87,0.00,,---,0.01,VWS V14.01,2013-05-29 15:43:00,
2013-05-29 09:44:00,54.5,50.3,29.69,ESE,103,3.2,4.7,86,0.00,,---,0.01,VWS V14.01,2013-05-29 15:44:00,
2013-05-29 09:45:00,54.0,50.2,29.71,South,180,0.0,0.0,87,0.00,,---,0.01,VWS V14.01,2013-05-29 15:45:00,
2013-05-29 09:46:00,54.0,50.3,29.71,South,180,0.0,0.0,87,0.00,,---,0.01,VWS V14.01,2013-05-29 15:46:00,
2013-05-29 09:47:00,-1.3,-20.6,0.00,NNW,336,9.2,9.2,38,0.00,,---,0.00,VWS V14.01,2013-05-29 15:47:00,
2013-05-29 09:48:00,57.3,13.7,29.76,NNW,336,0.0,14.4,18,0.00,,---,99.99,VWS V14.01,2013-05-29 15:48:00,
2013-05-29 09:49:00,53.9,50.3,29.71,ESE,114,0.0,2.2,88,0.00,,---,0.01,VWS V14.01,2013-05-29 15:49:00,
2013-05-29 09:50:00,57.5,31.0,29.75,NNW,336,0.0,14.4,36,0.00,,---,0.02,VWS V14.01,2013-05-29 15:50:00,
2013-05-29 09:51:00,53.5,49.9,29.71,ESE,114,0.0,0.0,88,0.00,,---,0.01,VWS V14.01,2013-05-29 15:51:00,
2013-05-29 09:52:00,57.7,30.9,29.75,NW,316,0.0,5.6,36,0.00,,---,0.02,VWS V14.01,2013-05-29 15:52:00,
2013-05-29 09:53:00,57.8,14.1,29.74,NNW,340,0.0,9.2,18,0.00,,---,99.99,VWS V14.01,2013-05-29 15:53:00,
2013-05-29 09:54:00,53.3,49.8,29.71,ESE,114,0.0,0.0,88,0.00,,---,0.01,VWS V14.01,2013-05-29 15:54:00,
2013-05-29 09:55:00,58.0,31.4,29.73,NNW,329,0.0,0.0,36,0.00,,---,99.99,VWS V14.01,2013-05-29 15:55:00,
2013-05-29 09:56:00,58.1,31.9,29.72,NNW,340,0.0,13.2,37,0.00,,---,99.99,VWS V14.01,2013-05-29 15:56:00,
2013-05-29 09:57:00,58.2,31.8,29.72,NW,323,0.0,0.0,37,0.00,,---,99.99,VWS V14.01,2013-05-29 15:57:00,
2013-05-29 09:58:00,58.3,32.3,29.72,NW,308,3.4,5.3,37,0.00,,---,99.99,VWS V14.01,2013-05-29 15:58:00,
2013-05-29 09:59:00,53.4,50.2,29.71,ESE,114,0.0,0.0,89,0.00,,---,0.01,VWS V14.01,2013-05-29 15:59:00,
2013-05-29 10:00:00,53.7,50.5,29.71,ESE,114,0.0,0.0,89,0.00,,---,0.01,VWS V14.01,2013-05-29 16:00:00,
2013-05-29 10:01:00,53.8,50.6,29.71,ESE,114,0.0,0.0,89,0.00,,---,0.01,VWS V14.01,2013-05-29 16:01:00,
2013-05-29 10:02:00,58.7,32.0,29.71,NE,42,0.0,9.2,36,0.00,,---,99.99,VWS V14.01,2013-05-29 16:02:00,
2013-05-29 10:03:00,58.8,14.9,29.71,NE,42,0.0,1.9,18,0.00,,---,99.99,VWS V14.01,2013-05-29 16:03:00,
2013-05-29 10:04:00,53.9,50.6,29.71,ESE,114,0.0,0.0,89,0.00,,---,0.01,VWS V14.01,2013-05-29 16:04:00,
2013-05-29 10:05:00,59.0,31.8,29.71,NE,42,0.0,11.1,36,0.00,,---,99.99,VWS V14.01,2013-05-29 16:05:00,
2013-05-29 10:06:00,59.1,31.4,29.70,North,7,0.0,0.0,35,0.00,,---,99.99,VWS V14.01,2013-05-29 16:06:00,
2013-05-29 10:07:00,59.2,31.6,29.70,North,359,0.0,3.4,35,0.00,,---,99.99,VWS V14.01,2013-05-29 16:07:00,
2013-05-29 10:08:00,59.3,31.9,29.70,NW,312,0.0,3.4,35,0.00,,---,99.99,VWS V14.01,2013-05-29 16:08:00,
2013-05-29 10:09:00,54.4,50.9,29.71,ESE,114,0.0,0.0,88,0.00,,---,0.01,VWS V14.01,2013-05-29 16:09:00,
2013-05-29 10:10:00,59.5,32.6,29.69,North,359,0.0,14.4,36,0.00,,---,99.99,VWS V14.01,2013-05-29 16:10:00,
2013-05-29 10:11:00,59.6,32.6,29.68,NNE,22,0.0,2.9,36,0.00,,---,99.99,VWS V14.01,2013-05-29 16:11:00,
2013-05-29 10:12:00,59.7,15.6,29.68,North,359,3.4,14.4,18,0.00,,---,99.99,VWS V14.01,2013-05-29 16:12:00,
2013-05-29 10:13:00,59.8,15.7,29.68,North,359,6.0,13.4,18,0.00,,---,99.99,VWS V14.01,2013-05-29 16:13:00,
2013-05-29 10:14:00,54.5,51.2,29.71,ESE,114,0.0,0.0,89,0.00,,---,0.01,VWS V14.01,2013-05-29 16:14:00,
2013-05-29 10:15:00,60.0,33.9,29.68,North,359,5.5,5.5,37,0.00,,---,99.99,VWS V14.01,2013-05-29 16:15:00,
2013-05-29 10:16:00,60.1,34.0,0.01,North,4,0.0,3.2,37,0.00,,---,12.09,VWS V14.01,2013-05-29 16:16:00,
2013-05-29 10:17:00,60.3,33.5,0.00,North,359,0.0,14.4,36,0.00,,---,0.00,VWS V14.01,2013-05-29 16:17:00,
2013-05-29 10:18:00,60.3,33.5,29.48,North,359,0.0,14.4,36,0.00,,---,99.99,VWS V14.01,2013-05-29 16:18:00,
2013-05-29 10:19:00,55.2,52.1,29.71,ESE,114,0.0,0.0,89,0.00,,---,0.01,VWS V14.01,2013-05-29 16:19:00,
2013-05-29 10:20:00,60.5,33.2,29.48,NW,307,0.0,11.2,36,0.00,,---,99.99,VWS V14.01,2013-05-29 16:20:00,
2013-05-29 10:21:00,60.6,16.4,29.68,NW,307,0.0,14.4,18,0.00,,---,99.99,VWS V14.01,2013-05-29 16:21:00,
2013-05-29 10:22:00,60.7,32.8,29.48,NW,307,0.0,14.4,35,0.00,,---,0.02,VWS V14.01,2013-05-29 16:22:00,
2013-05-29 10:23:00,-0.2,-21.1,29.66,North,3,10.0,10.0,35,0.00,,---,0.02,VWS V14.01,2013-05-29 16:23:00,
2013-05-29 10:24:00,56.4,53.0,29.71,ESE,114,0.0,0.0,88,0.00,,---,0.01,VWS V14.01,2013-05-29 16:24:00,
2013-05-29 10:25:00,61.0,34.0,29.66,North,6,0.0,11.6,36,0.00,,---,99.99,VWS V14.01,2013-05-29 16:25:00,
2013-05-29 10:26:00,61.1,33.9,29.66,North,6,0.0,11.4,36,0.00,,---,99.99,VWS V14.01,2013-05-29 16:26:00,
2013-05-29 10:27:00,61.2,33.7,29.66,North,4,0.0,0.0,36,0.00,,---,0.02,VWS V14.01,2013-05-29 16:27:00,
2013-05-29 10:28:00,61.3,0.0,29.66,North,4,0.0,11.0,0,0.00,,---,0.02,VWS V14.01,2013-05-29 16:28:00,
2013-05-29 10:29:00,56.5,52.4,29.70,ESE,114,0.0,0.0,86,0.00,,---,0.01,VWS V14.01,2013-05-29 16:29:00,
2013-05-29 10:30:00,61.5,17.1,29.66,NNE,15,0.0,13.5,18,0.00,,---,99.99,VWS V14.01,2013-05-29 16:30:00,
2013-05-29 10:31:00,61.6,33.6,29.66,NNE,15,0.0,4.3,35,0.00,,---,99.99,VWS V14.01,2013-05-29 16:31:00,
2013-05-29 10:32:00,61.7,33.4,29.66,NE,52,6.2,8.1,34,0.00,,---,99.99,VWS V14.01,2013-05-29 16:32:00,
2013-05-29 10:33:00,56.7,52.5,29.70,ESE,114,0.0,0.0,86,0.00,,---,0.01,VWS V14.01,2013-05-29 16:33:00,
2013-05-29 10:34:00,56.8,52.6,29.70,ESE,114,0.0,0.0,86,0.00,,---,0.01,VWS V14.01,2013-05-29 16:34:00,
2013-05-29 10:35:00,62.0,33.2,29.66,NNE,15,0.0,14.4,34,0.00,,---,0.00,VWS V14.01,2013-05-29 16:35:00,
2013-05-29 10:36:00,62.1,33.1,29.65,NE,35,3.4,14.4,34,0.00,,---,0.84,VWS V14.01,2013-05-29 16:36:00,
2013-05-29 10:37:00,62.2,33.6,29.65,NE,55,4.7,14.4,34,0.00,,---,0.86,VWS V14.01,2013-05-29 16:37:00,
2013-05-29 10:38:00,62.3,33.4,29.65,NNE,27,3.4,14.4,34,0.00,,---,0.54,VWS V14.01,2013-05-29 16:38:00,
2013-05-29 10:39:00,57.3,52.8,29.70,NE,51,4.3,4.3,85,0.00,,---,0.01,VWS V14.01,2013-05-29 16:39:00,
2013-05-29 10:40:00,57.4,53.1,29.70,NNE,24,0.0,0.0,86,0.00,,---,0.01,VWS V14.01,2013-05-29 16:40:00,
2013-05-29 10:41:00,57.4,52.9,29.70,NNE,24,0.0,0.0,85,0.00,,---,0.01,VWS V14.01,2013-05-29 16:41:00,
2013-05-29 10:42:00,57.6,53.2,29.70,East,101,0.0,3.5,85,0.00,,---,0.01,VWS V14.01,2013-05-29 16:42:00,
2013-05-29 10:43:00,57.8,53.1,29.69,East,101,0.0,0.0,84,0.00,,---,0.01,VWS V14.01,2013-05-29 16:43:00,
2013-05-29 10:44:00,57.7,53.0,29.69,East,101,0.0,0.0,84,0.00,,---,0.01,VWS V14.01,2013-05-29 16:44:00,
2013-05-29 10:45:00,57.9,53.4,29.69,East,101,0.0,0.0,85,0.00,,---,0.01,VWS V14.01,2013-05-29 16:45:00,
2013-05-29 10:46:00,58.2,53.8,29.69,East,101,0.0,0.0,85,0.00,,---,0.01,VWS V14.01,2013-05-29 16:46:00,
2013-05-29 10:47:00,58.3,53.7,29.69,NE,44,0.0,4.5,85,0.00,,---,0.01,VWS V14.01,2013-05-29 16:47:00,
2013-05-29 10:48:00,58.5,53.6,29.69,NE,44,0.0,0.0,84,0.00,,---,0.01,VWS V14.01,2013-05-29 16:48:00,
2013-05-29 10:49:00,58.5,53.5,29.69,NE,44,0.0,0.0,83,0.00,,---,0.01,VWS V14.01,2013-05-29 16:49:00,
2013-05-29 10:50:00,58.5,53.0,29.69,NE,44,0.0,0.0,82,0.00,,---,0.01,VWS V14.01,2013-05-29 16:50:00,
2013-05-29 10:51:00,58.5,52.7,29.69,NE,44,0.0,0.0,81,0.00,,---,0.01,VWS V14.01,2013-05-29 16:51:00,
2013-05-29 10:52:00,63.7,33.7,29.64,North,7,8.0,14.4,32,0.00,,---,99.99,VWS V14.01,2013-05-29 16:52:00,
2013-05-29 10:53:00,63.8,19.0,29.64,NNE,17,3.4,14.4,18,0.00,,---,99.99,VWS V14.01,2013-05-29 16:53:00,
2013-05-29 10:54:00,58.6,53.1,29.69,East,79,5.6,6.1,82,0.00,,---,0.01,VWS V14.01,2013-05-29 16:54:00,
2013-05-29 10:55:00,64.0,33.6,0.00,North,8,14.3,17.7,32,0.00,,---,1.95,VWS V14.01,2013-05-29 16:55:00,
2013-05-29 10:56:00,58.5,51.8,29.69,SE,125,0.0,0.0,78,0.00,,---,0.01,VWS V14.01,2013-05-29 16:56:00,
2013-05-29 10:57:00,64.2,19.3,29.64,NE,39,4.7,14.4,18,0.00,,---,99.99,VWS V14.01,2013-05-29 16:57:00,
2013-05-29 10:58:00,64.3,19.4,29.64,NNE,22,3.5,14.4,18,0.00,,---,99.99,VWS V14.01,2013-05-29 16:58:00,
2013-05-29 10:59:00,58.7,52.0,29.69,ENE,59,0.0,0.0,78,0.00,,---,0.01,VWS V14.01,2013-05-29 16:59:00,
2013-05-29 11:00:00,64.5,34.1,29.48,North,353,3.1,14.4,32,0.00,,---,99.99,VWS V14.01,2013-05-29 17:00:00,
2013-05-29 11:01:00,58.9,52.3,29.69,NNE,27,2.3,6.2,79,0.00,,---,0.01,VWS V14.01,2013-05-29 17:01:00,
2013-05-29 11:02:00,64.7,19.7,29.64,ENE,75,7.3,14.4,18,0.00,,---,99.99,VWS V14.01,2013-05-29 17:02:00,
2013-05-29 11:03:00,64.8,35.0,29.48,NNE,32,8.3,25.5,33,0.00,,---,99.99,VWS V14.01,2013-05-29 17:03:00,
2013-05-29 11:04:00,59.0,51.7,29.69,East,101,3.0,4.3,77,0.00,,---,0.01,VWS V14.01,2013-05-29 17:04:00,
2013-05-29 11:05:00,13.3,1.5,0.01,North,0,9.6,15.5,58,0.00,,---,4.18,VWS V14.01,2013-05-29 17:05:00,
2013-05-29 11:06:00,65.1,36.7,0.00,NE,51,10.1,14.5,35,0.00,,---,99.99,VWS V14.01,2013-05-29 17:06:00,
2013-05-29 11:07:00,65.2,37.4,29.64,NW,321,6.5,14.4,36,0.00,,---,99.99,VWS V14.01,2013-05-29 17:07:00,
2013-05-29 11:08:00,65.3,38.2,29.64,West,269,0.0,11.3,37,0.00,,---,99.99,VWS V14.01,2013-05-29 17:08:00,
2013-05-29 11:09:00,59.4,51.2,29.69,North,356,0.0,0.0,74,0.00,,---,0.01,VWS V14.01,2013-05-29 17:09:00,
2013-05-29 11:10:00,65.6,20.5,29.64,North,359,0.0,11.9,18,0.00,,---,99.99,VWS V14.01,2013-05-29 17:10:00,
2013-05-29 11:11:00,64.5,35.2,0.01,WNW,301,0.0,13.3,34,0.00,,---,4.70,VWS V14.01,2013-05-29 17:11:00,
2013-05-29 11:12:00,59.7,51.5,29.69,ESE,103,0.0,2.9,74,0.00,,---,0.01,VWS V14.01,2013-05-29 17:12:00,
2013-05-29 11:13:00,59.9,51.6,29.69,NNE,20,3.5,4.8,74,0.00,,---,0.01,VWS V14.01,2013-05-29 17:13:00,
2013-05-29 11:14:00,59.9,51.6,29.69,ENE,65,0.0,0.0,74,0.00,,---,0.01,VWS V14.01,2013-05-29 17:14:00,
2013-05-29 11:15:00,59.9,51.5,29.69,ENE,65,0.0,0.0,74,0.00,,---,0.01,VWS V14.01,2013-05-29 17:15:00,
2013-05-29 11:16:00,60.0,51.4,29.69,ENE,65,0.0,0.0,73,0.00,,---,0.01,VWS V14.01,2013-05-29 17:16:00,
2013-05-29 11:17:00,60.0,51.2,29.69,SSE,165,3.4,4.3,73,0.00,,---,0.01,VWS V14.01,2013-05-29 17:17:00,
2013-05-29 11:18:00,60.0,51.5,29.69,South,190,0.0,0.0,73,0.00,,---,0.01,VWS V14.01,2013-05-29 17:18:00,
2013-05-29 11:19:00,60.0,51.4,29.69,South,190,0.0,0.0,73,0.00,,---,0.01,VWS V14.01,2013-05-29 17:19:00,
2013-05-29 11:20:00,60.0,51.4,29.70,South,190,0.0,0.0,73,0.00,,---,0.01,VWS V14.01,2013-05-29 17:20:00,
2013-05-29 11:21:00,59.9,50.8,29.69,South,190,0.0,0.0,72,0.00,,---,0.01,VWS V14.01,2013-05-29 17:21:00,
2013-05-29 11:22:00,59.8,50.7,29.70,South,190,0.0,0.0,72,0.00,,---,0.01,VWS V14.01,2013-05-29 17:22:00,
2013-05-29 11:23:00,59.8,50.8,29.69,South,190,0.0,0.0,72,0.00,,---,0.01,VWS V14.01,2013-05-29 17:23:00,
2013-05-29 11:24:00,59.7,50.8,29.70,South,190,0.0,0.0,72,0.00,,---,0.01,VWS V14.01,2013-05-29 17:24:00,
2013-05-29 11:25:00,59.6,50.6,29.70,NE,37,5.2,6.4,72,0.00,,---,0.01,VWS V14.01,2013-05-29 17:25:00,
2013-05-29 11:26:00,59.4,50.2,29.70,NE,56,3.5,3.5,72,0.00,,---,0.01,VWS V14.01,2013-05-29 17:26:00,
2013-05-29 11:27:00,59.3,50.4,29.70,SE,141,5.5,6.2,72,0.00,,---,0.01,VWS V14.01,2013-05-29 17:27:00,
2013-05-29 11:28:00,59.2,50.6,29.70,East,93,5.1,5.9,73,0.00,,---,0.01,VWS V14.01,2013-05-29 17:28:00,
2013-05-29 11:29:00,59.1,50.5,29.70,East,80,0.0,0.0,73,0.00,,---,0.01,VWS V14.01,2013-05-29 17:29:00,
2013-05-29 11:30:00,59.2,50.5,29.70,SE,135,4.3,4.3,73,0.00,,---,0.01,VWS V14.01,2013-05-29 17:30:00,
2013-05-29 11:31:00,59.1,50.3,29.70,East,101,0.0,0.0,73,0.00,,---,0.01,VWS V14.01,2013-05-29 17:31:00,
2013-05-29 11:32:00,59.1,50.2,29.70,East,101,0.0,0.0,72,0.00,,---,0.01,VWS V14.01,2013-05-29 17:32:00,
2013-05-29 11:33:00,59.1,50.2,29.70,East,101,0.0,0.0,72,0.00,,---,0.01,VWS V14.01,2013-05-29 17:33:00,
2013-05-29 11:34:00,59.1,49.9,29.70,East,82,5.5,5.5,72,0.00,,---,0.01,VWS V14.01,2013-05-29 17:34:00,
2013-05-29 11:35:00,59.1,49.8,29.70,ENE,59,0.0,0.0,71,0.00,,---,0.01,VWS V14.01,2013-05-29 17:35:00,
2013-05-29 11:36:00,59.0,50.0,29.70,ENE,59,0.0,0.0,72,0.00,,---,0.01,VWS V14.01,2013-05-29 17:36:00,
2013-05-29 11:37:00,59.1,50.1,29.70,NNE,21,4.9,7.0,72,0.00,,---,0.01,VWS V14.01,2013-05-29 17:37:00,
2013-05-29 11:38:00,59.1,50.3,29.70,North,3,0.0,0.0,72,0.00,,---,0.01,VWS V14.01,2013-05-29 17:38:00,
2013-05-29 11:39:00,59.2,50.2,29.70,ESE,115,5.2,5.2,72,0.00,,---,0.01,VWS V14.01,2013-05-29 17:39:00,
2013-05-29 11:40:00,59.1,49.9,29.70,ENE,77,5.7,6.1,72,0.00,,---,0.01,VWS V14.01,2013-05-29 17:40:00,
2013-05-29 11:41:00,59.1,49.9,29.70,NE,53,0.0,0.0,72,0.00,,---,0.01,VWS V14.01,2013-05-29 17:41:00,
2013-05-29 11:42:00,59.2,50.3,29.70,NE,53,0.0,0.0,72,0.00,,---,0.01,VWS V14.01,2013-05-29 17:42:00,
2013-05-29 11:43:00,59.2,50.1,29.70,ESE,103,6.4,6.4,72,0.00,,---,0.01,VWS V14.01,2013-05-29 17:43:00,
2013-05-29 11:44:00,59.2,49.7,29.70,NE,45,2.7,5.2,71,0.00,,---,0.01,VWS V14.01,2013-05-29 17:44:00,
2013-05-29 11:45:00,59.3,50.3,29.70,East,91,0.0,0.0,72,0.00,,---,0.01,VWS V14.01,2013-05-29 17:45:00,
2013-05-29 11:46:00,59.4,50.1,29.70,East,82,0.0,0.0,71,0.00,,---,0.01,VWS V14.01,2013-05-29 17:46:00,
2013-05-29 11:47:00,59.5,50.4,29.70,East,82,0.0,0.0,72,0.00,,---,0.01,VWS V14.01,2013-05-29 17:47:00,
2013-05-29 11:48:00,59.7,50.4,29.70,East,82,0.0,0.0,71,0.00,,---,0.01,VWS V14.01,2013-05-29 17:48:00,
2013-05-29 11:49:00,59.9,50.6,29.70,ESE,115,0.0,3.4,71,0.00,,---,0.01,VWS V14.01,2013-05-29 17:49:00,
2013-05-29 11:50:00,59.7,50.4,29.70,ENE,77,3.4,4.3,71,0.00,,---,0.01,VWS V14.01,2013-05-29 17:50:00,
2013-05-29 11:51:00,60.0,50.3,29.70,ENE,73,0.0,0.0,70,0.00,,---,0.01,VWS V14.01,2013-05-29 17:51:00,
2013-05-29 11:52:00,60.1,50.6,29.70,SE,146,7.2,8.5,71,0.00,,---,0.01,VWS V14.01,2013-05-29 17:52:00,
2013-05-29 11:53:00,60.2,50.7,29.70,ENE,65,4.8,4.8,71,0.00,,---,0.01,VWS V14.01,2013-05-29 17:53:00,
2013-05-29 11:54:00,60.3,50.5,29.70,NE,42,0.0,0.0,70,0.00,,---,0.01,VWS V14.01,2013-05-29 17:54:00,
2013-05-29 11:55:00,60.3,50.5,29.70,NE,42,0.0,4.2,70,0.00,,---,0.01,VWS V14.01,2013-05-29 17:55:00,
2013-05-29 11:56:00,57.8,40.0,29.65,NW,309,3.5,5.2,51,0.00,,---,4.36,VWS V14.01,2013-05-29 17:56:00,
2013-05-29 11:57:00,57.9,40.1,29.48,NNW,336,0.0,12.8,51,0.00,,---,4.36,VWS V14.01,2013-05-29 17:57:00,
2013-05-29 11:58:00,21.2,10.9,36.21,North,0,0.0,5.1,64,0.00,,---,4.35,VWS V14.01,2013-05-29 17:58:00,
2013-05-29 11:59:00,57.9,0.0,2.12,North,359,9.6,12.6,0,0.00,,---,0.55,VWS V14.01,2013-05-29 17:59:00,
2013-05-29 12:00:00,60.6,50.8,29.69,ENE,68,3.2,6.5,70,0.00,,---,0.01,VWS V14.01,2013-05-29 18:00:00,
2013-05-29 12:01:00,57.9,40.1,29.74,North,356,0.0,14.4,51,0.00,,---,3.42,VWS V14.01,2013-05-29 18:01:00,
2013-05-29 12:02:00,57.9,31.3,29.73,NW,323,0.0,9.6,36,0.00,,---,4.42,VWS V14.01,2013-05-29 18:02:00,
2013-05-29 12:03:00,58.2,40.5,0.00,NNW,340,0.0,0.0,52,0.00,,---,4.47,VWS V14.01,2013-05-29 18:03:00,
2013-05-29 12:04:00,59.1,31.5,29.70,North,359,0.0,0.0,35,0.00,,---,4.30,VWS V14.01,2013-05-29 18:04:00,
2013-05-29 12:05:00,61.4,51.2,29.70,North,11,3.1,4.5,69,0.00,,---,0.01,VWS V14.01,2013-05-29 18:05:00,
2013-05-29 12:06:00,59.7,32.7,29.68,NNE,22,0.0,11.5,36,0.00,,---,4.39,VWS V14.01,2013-05-29 18:06:00,
2013-05-29 12:07:00,59.9,33.7,29.68,NW,309,3.2,6.0,37,0.00,,---,0.02,VWS V14.01,2013-05-29 18:07:00,
2013-05-29 12:08:00,60.2,27.1,29.68,North,359,0.0,13.4,28,0.00,,---,4.58,VWS V14.01,2013-05-29 18:08:00,
2013-05-29 12:09:00,60.9,33.6,29.66,North,359,0.0,7.0,36,0.00,,---,4.36,VWS V14.01,2013-05-29 18:09:00,
2013-05-29 12:10:00,62.0,51.0,29.70,ESE,105,5.5,5.8,67,0.00,,---,0.01,VWS V14.01,2013-05-29 18:10:00,
2013-05-29 12:11:00,61.9,45.8,29.66,North,359,0.0,15.8,55,0.00,,---,4.27,VWS V14.01,2013-05-29 18:11:00,
2013-05-29 12:12:00,62.2,50.8,29.70,ESE,107,0.0,0.0,66,0.00,,---,0.01,VWS V14.01,2013-05-29 18:12:00,
2013-05-29 12:13:00,71.8,42.8,0.00,ENE,76,5.5,14.4,35,0.00,,---,0.02,VWS V14.01,2013-05-29 18:13:00,
2013-05-29 12:14:00,13.3,1.7,0.01,North,0,12.4,12.6,59,0.00,,---,4.56,VWS V14.01,2013-05-29 18:14:00,
2013-05-29 12:15:00,62.3,50.3,29.70,ESE,112,0.0,0.0,65,0.00,,---,0.01,VWS V14.01,2013-05-29 18:15:00,
2013-05-29 12:16:00,62.6,50.9,29.70,ESE,112,0.0,0.0,66,0.00,,---,0.01,VWS V14.01,2013-05-29 18:16:00,
2013-05-29 12:17:00,62.5,50.5,29.71,NE,42,6.4,6.4,65,0.00,,---,0.01,VWS V14.01,2013-05-29 18:17:00,
2013-05-29 12:18:00,62.4,50.0,29.71,ESE,112,2.2,3.3,64,0.00,,---,0.01,VWS V14.01,2013-05-29 18:18:00,
2013-05-29 12:19:00,62.2,49.9,29.71,ESE,112,0.0,0.0,64,0.00,,---,0.01,VWS V14.01,2013-05-29 18:19:00,
2013-05-29 12:20:00,62.3,50.0,29.71,ESE,112,0.0,0.0,64,0.00,,---,0.01,VWS V14.01,2013-05-29 18:20:00,
2013-05-29 12:21:00,61.8,50.5,29.71,NE,46,2.5,4.5,66,0.00,,---,0.01,VWS V14.01,2013-05-29 18:21:00,
2013-05-29 12:22:00,61.7,50.9,29.71,SE,127,0.0,0.0,68,0.00,,---,0.01,VWS V14.01,2013-05-29 18:22:00,
2013-05-29 12:23:00,57.9,40.1,29.70,North,359,4.7,12.6,51,0.00,,---,99.99,VWS V14.01,2013-05-29 18:23:00,
2013-05-29 12:24:00,61.4,51.3,29.71,NE,41,9.6,11.3,69,0.00,,---,0.01,VWS V14.01,2013-05-29 18:24:00,
2013-05-29 12:25:00,61.4,51.3,29.71,ENE,63,9.5,10.1,69,0.00,,---,0.01,VWS V14.01,2013-05-29 18:25:00,
2013-05-29 12:26:00,60.9,50.8,29.71,NNE,13,6.3,8.3,69,0.00,,---,0.01,VWS V14.01,2013-05-29 18:26:00,
2013-05-29 12:27:00,60.6,50.8,29.71,NE,34,0.0,0.0,70,0.00,,---,0.01,VWS V14.01,2013-05-29 18:27:00,
2013-05-29 12:28:00,60.3,51.0,29.71,ENE,66,3.4,3.4,71,0.00,,---,0.01,VWS V14.01,2013-05-29 18:28:00,
2013-05-29 12:29:00,60.1,51.1,29.71,North,6,0.0,4.2,72,0.00,,---,0.01,VWS V14.01,2013-05-29 18:29:00,
2013-05-29 12:30:00,60.1,51.1,29.71,North,6,0.0,4.2,72,0.00,,---,0.01,VWS V14.01,2013-05-29 18:30:00,
2013-05-29 12:31:00,59.7,51.2,29.71,NNE,20,5.9,6.5,73,0.00,,---,0.01,VWS V14.01,2013-05-29 18:31:00,
2013-05-29 12:32:00,59.5,51.1,29.71,NNE,13,0.0,0.0,74,0.00,,---,0.01,VWS V14.01,2013-05-29 18:32:00,
2013-05-29 12:33:00,59.3,51.2,29.71,North,8,0.0,4.7,74,0.00,,---,0.01,VWS V14.01,2013-05-29 18:33:00,
2013-05-29 12:34:00,59.1,50.9,29.71,North,8,0.0,0.0,74,0.00,,---,0.01,VWS V14.01,2013-05-29 18:34:00,
2013-05-29 12:35:00,59.1,50.9,29.71,North,8,0.0,0.0,74,0.00,,---,0.01,VWS V14.01,2013-05-29 18:35:00,
2013-05-29 12:36:00,58.7,50.8,29.71,North,359,0.0,0.0,75,0.00,,---,0.01,VWS V14.01,2013-05-29 18:36:00,
2013-05-29 12:37:00,58.5,50.8,29.71,NE,41,0.0,4.8,75,0.00,,---,0.01,VWS V14.01,2013-05-29 18:37:00,
2013-05-29 12:38:00,58.3,50.6,29.71,NNE,13,8.0,9.9,76,0.00,,---,0.01,VWS V14.01,2013-05-29 18:38:00,
2013-05-29 12:39:00,58.0,50.5,29.71,NE,46,0.0,0.0,76,0.00,,---,0.01,VWS V14.01,2013-05-29 18:39:00,
2013-05-29 12:40:00,58.0,50.5,29.71,NE,46,0.0,0.0,76,0.00,,---,0.01,VWS V14.01,2013-05-29 18:40:00,
2013-05-29 12:41:00,57.9,51.1,29.71,NNE,25,7.5,9.3,78,0.00,,---,0.01,VWS V14.01,2013-05-29 18:41:00,
2013-05-29 12:42:00,57.8,50.8,29.72,NNE,21,5.6,7.2,77,0.00,,---,0.01,VWS V14.01,2013-05-29 18:42:00,
2013-05-29 12:43:00,57.6,50.7,29.71,ENE,66,0.0,0.0,78,0.00,,---,0.01,VWS V14.01,2013-05-29 18:43:00,
2013-05-29 12:44:00,57.5,50.9,29.71,NE,46,4.2,6.2,79,0.00,,---,0.01,VWS V14.01,2013-05-29 18:44:00,
2013-05-29 12:45:00,57.5,50.9,29.71,NE,46,4.2,6.2,79,0.00,,---,0.01,VWS V14.01,2013-05-29 18:45:00,
2013-05-29 12:46:00,57.3,51.3,29.71,SE,132,5.8,6.1,80,0.00,,---,0.01,VWS V14.01,2013-05-29 18:46:00,
2013-05-29 12:47:00,57.2,51.3,29.70,ESE,104,6.8,9.5,80,0.00,,---,0.01,VWS V14.01,2013-05-29 18:47:00,
2013-05-29 12:48:00,57.2,51.6,29.70,SE,139,3.2,4.8,82,0.00,,---,0.01,VWS V14.01,2013-05-29 18:48:00,
2013-05-29 12:49:00,57.2,51.9,29.69,SE,142,5.8,6.2,82,0.00,,---,0.01,VWS V14.01,2013-05-29 18:49:00,
2013-05-29 12:50:00,57.2,51.9,29.69,SE,142,5.8,6.2,82,0.00,,---,0.01,VWS V14.01,2013-05-29 18:50:00,
2013-05-29 12:51:00,57.0,51.8,29.69,SE,125,5.0,5.3,83,0.00,,---,0.01,VWS V14.01,2013-05-29 18:51:00,
2013-05-29 12:52:00,57.0,52.0,29.68,ESE,110,5.0,7.4,83,0.00,,---,0.01,VWS V14.01,2013-05-29 18:52:00,
2013-05-29 12:53:00,56.9,51.9,29.68,ESE,120,0.0,0.0,83,0.00,,---,0.01,VWS V14.01,2013-05-29 18:53:00,
2013-05-29 12:54:00,56.8,52.0,29.68,ESE,120,0.0,0.0,84,0.00,,---,0.01,VWS V14.01,2013-05-29 18:54:00,
2013-05-29 12:55:00,56.8,52.0,29.68,ESE,120,0.0,0.0,84,0.00,,---,0.01,VWS V14.01,2013-05-29 18:55:00,
2013-05-29 12:56:00,56.8,52.0,29.68,SE,124,0.0,0.0,84,0.01,,---,0.02,VWS V14.01,2013-05-29 18:56:00,
2013-05-29 12:57:00,56.7,52.2,29.68,South,179,3.2,4.8,85,0.01,,---,0.02,VWS V14.01,2013-05-29 18:57:00,
2013-05-29 12:58:00,56.7,52.2,29.68,SE,135,3.2,5.3,85,0.01,,---,0.02,VWS V14.01,2013-05-29 18:58:00,
2013-05-29 12:59:00,56.7,52.3,29.68,SE,135,0.0,0.0,85,0.01,,---,0.02,VWS V14.01,2013-05-29 18:59:00,
2013-05-29 13:00:00,56.7,52.3,29.68,SE,135,0.0,0.0,85,0.01,,---,0.02,VWS V14.01,2013-05-29 19:00:00,
2013-05-29 13:01:00,56.5,52.0,29.68,SE,132,4.2,7.3,85,0.01,,---,0.02,VWS V14.01,2013-05-29 19:01:00,
2013-05-29 13:02:00,56.5,52.0,29.68,SE,124,3.4,7.6,85,0.01,,---,0.02,VWS V14.01,2013-05-29 19:02:00,
2013-05-29 13:03:00,56.3,51.8,29.68,South,174,4.5,6.7,85,0.01,,---,0.02,VWS V14.01,2013-05-29 19:03:00,
2013-05-29 13:04:00,56.3,51.9,29.68,South,183,3.5,4.3,85,0.01,,---,0.02,VWS V14.01,2013-05-29 19:04:00,
2013-05-29 13:05:00,56.3,51.9,29.68,South,183,3.5,4.3,85,0.01,,---,0.02,VWS V14.01,2013-05-29 19:05:00,
2013-05-29 13:06:00,56.2,51.8,29.68,ESE,112,5.2,5.2,85,0.01,,---,0.02,VWS V14.01,2013-05-29 19:06:00,
2013-05-29 13:07:00,56.1,51.8,29.68,NE,56,0.0,0.0,86,0.01,,---,0.02,VWS V14.01,2013-05-29 19:07:00,
2013-05-29 13:08:00,56.0,51.8,29.68,NE,56,0.0,0.0,86,0.01,,---,0.02,VWS V14.01,2013-05-29 19:08:00,
2013-05-29 13:09:00,56.1,51.9,29.68,East,94,0.0,2.4,86,0.01,,---,0.02,VWS V14.01,2013-05-29 19:09:00,
2013-05-29 13:10:00,56.1,51.9,29.68,East,94,0.0,2.4,86,0.01,,---,0.02,VWS V14.01,2013-05-29 19:10:00,
2013-05-29 13:11:00,56.0,51.9,29.68,East,94,0.0,0.0,86,0.01,,---,0.02,VWS V14.01,2013-05-29 19:11:00,
2013-05-29 13:12:00,56.1,52.0,29.68,East,94,0.0,0.0,86,0.01,,---,0.02,VWS V14.01,2013-05-29 19:12:00,
2013-05-29 13:13:00,56.1,52.0,29.68,East,94,0.0,0.0,86,0.01,,---,0.02,VWS V14.01,2013-05-29 19:13:00,
2013-05-29 13:14:00,56.1,51.9,29.68,East,94,0.0,0.0,86,0.01,,---,0.02,VWS V14.01,2013-05-29 19:14:00,
2013-05-29 13:15:00,56.1,51.9,29.68,East,94,0.0,0.0,86,0.01,,---,0.02,VWS V14.01,2013-05-29 19:15:00,
2013-05-29 13:16:00,56.0,51.8,29.68,ENE,60,0.0,0.0,86,0.01,,---,0.02,VWS V14.01,2013-05-29 19:16:00,
2013-05-29 13:17:00,56.1,52.0,29.68,ENE,60,0.0,0.0,86,0.01,,---,0.02,VWS V14.01,2013-05-29 19:17:00,
2013-05-29 13:18:00,56.1,52.1,29.68,ENE,60,0.0,0.0,86,0.01,,---,0.02,VWS V14.01,2013-05-29 19:18:00,
2013-05-29 13:19:00,56.3,52.4,29.68,ENE,60,0.0,0.0,87,0.01,,---,0.02,VWS V14.01,2013-05-29 19:19:00,
2013-05-29 13:20:00,56.3,52.4,29.68,ENE,60,0.0,0.0,87,0.01,,---,0.02,VWS V14.01,2013-05-29 19:20:00,
2013-05-29 13:21:00,56.5,52.4,29.68,ENE,60,0.0,0.0,86,0.01,,---,0.02,VWS V14.01,2013-05-29 19:21:00,
2013-05-29 13:22:00,56.5,52.2,29.68,ENE,60,0.0,0.0,86,0.01,,---,0.02,VWS V14.01,2013-05-29 19:22:00,
2013-05-29 13:23:00,56.5,52.0,29.68,ENE,60,0.0,0.0,85,0.01,,---,0.02,VWS V14.01,2013-05-29 19:23:00,
2013-05-29 13:24:00,56.6,52.1,29.68,ENE,60,0.0,0.0,85,0.01,,---,0.02,VWS V14.01,2013-05-29 19:24:00,
2013-05-29 13:25:00,56.6,52.1,29.68,ENE,60,0.0,0.0,85,0.01,,---,0.02,VWS V14.01,2013-05-29 19:25:00,
2013-05-29 13:26:00,56.8,52.3,29.68,ENE,60,0.0,0.0,85,0.01,,---,0.02,VWS V14.01,2013-05-29 19:26:00,
2013-05-29 13:27:00,56.9,52.2,29.68,ENE,60,0.0,0.0,84,0.01,,---,0.02,VWS V14.01,2013-05-29 19:27:00,
2013-05-29 13:28:00,56.8,52.1,29.69,ENE,60,0.0,0.0,84,0.01,,---,0.02,VWS V14.01,2013-05-29 19:28:00,
2013-05-29 13:29:00,56.9,52.2,29.68,ENE,60,0.0,0.0,84,0.01,,---,0.02,VWS V14.01,2013-05-29 19:29:00,
2013-05-29 13:30:00,56.9,52.2,29.68,ENE,60,0.0,0.0,84,0.01,,---,0.02,VWS V14.01,2013-05-29 19:30:00,
2013-05-29 13:31:00,57.0,52.2,29.68,ENE,60,0.0,0.0,84,0.01,,---,0.02,VWS V14.01,2013-05-29 19:31:00,
2013-05-29 13:32:00,57.0,52.0,29.68,ENE,60,0.0,0.0,83,0.01,,---,0.02,VWS V14.01,2013-05-29 19:32:00,
2013-05-29 13:33:00,57.0,51.9,29.68,ENE,60,0.0,0.0,83,0.01,,---,0.02,VWS V14.01,2013-05-29 19:33:00,
2013-05-29 13:34:00,57.0,51.8,29.68,ENE,60,0.0,0.0,83,0.01,,---,0.02,VWS V14.01,2013-05-29 19:34:00,
2013-05-29 13:35:00,57.0,51.8,29.68,ENE,60,0.0,0.0,83,0.01,,---,0.02,VWS V14.01,2013-05-29 19:35:00,
2013-05-29 13:36:00,57.1,51.9,29.68,ENE,60,0.0,0.0,83,0.01,,---,0.02,VWS V14.01,2013-05-29 19:36:00,
2013-05-29 13:37:00,57.0,51.9,29.68,ENE,60,0.0,0.0,83,0.01,,---,0.02,VWS V14.01,2013-05-29 19:37:00,
2013-05-29 13:38:00,57.0,51.9,29.68,North,0,4.5,5.2,83,0.01,,---,0.02,VWS V14.01,2013-05-29 19:38:00,
2013-05-29 13:39:00,56.9,51.7,29.68,NW,311,4.4,7.4,83,0.01,,---,0.02,VWS V14.01,2013-05-29 19:39:00,
2013-05-29 13:40:00,57.0,51.8,29.68,NW,311,4.4,6.6,83,0.01,,---,0.02,VWS V14.01,2013-05-29 19:40:00,
2013-05-29 13:41:00,57.1,51.9,29.68,NNE,24,0.0,0.0,83,0.01,,---,0.02,VWS V14.01,2013-05-29 19:41:00,
2013-05-29 13:42:00,57.1,51.6,29.68,NNE,24,0.0,0.0,82,0.01,,---,0.02,VWS V14.01,2013-05-29 19:42:00,
2013-05-29 13:43:00,57.0,51.3,29.68,East,79,4.5,6.2,81,0.01,,---,0.02,VWS V14.01,2013-05-29 19:43:00,
2013-05-29 13:44:00,56.9,50.9,29.68,NE,51,3.4,4.2,80,0.01,,---,0.02,VWS V14.01,2013-05-29 19:44:00,
2013-05-29 13:45:00,56.9,50.9,29.68,NE,51,3.4,4.2,80,0.01,,---,0.02,VWS V14.01,2013-05-29 19:45:00,
2013-05-29 13:46:00,56.9,51.0,29.68,NE,49,0.0,0.0,81,0.01,,---,0.02,VWS V14.01,2013-05-29 19:46:00,
2013-05-29 13:47:00,57.0,51.3,29.67,North,3,7.1,7.1,81,0.01,,---,0.02,VWS V14.01,2013-05-29 19:47:00,
2013-05-29 13:48:00,57.0,51.2,29.68,NNE,22,6.0,9.5,81,0.01,,---,0.02,VWS V14.01,2013-05-29 19:48:00,
2013-05-29 13:49:00,57.0,51.3,29.68,NE,55,4.8,6.2,81,0.01,,---,0.02,VWS V14.01,2013-05-29 19:49:00,
2013-05-29 13:50:00,57.0,51.3,29.68,NE,55,4.8,6.2,81,0.01,,---,0.02,VWS V14.01,2013-05-29 19:50:00,
2013-05-29 13:51:00,57.0,51.6,29.68,East,80,3.1,4.8,82,0.01,,---,0.02,VWS V14.01,2013-05-29 19:51:00,
2013-05-29 13:52:00,57.2,51.8,29.68,NE,34,2.2,8.9,82,0.01,,---,0.02,VWS V14.01,2013-05-29 19:52:00,
2013-05-29 13:53:00,57.2,51.9,29.68,NE,34,0.0,0.0,82,0.01,,---,0.02,VWS V14.01,2013-05-29 19:53:00,
2013-05-29 13:54:00,57.4,52.2,29.68,NE,51,6.5,6.5,83,0.01,,---,0.02,VWS V14.01,2013-05-29 19:54:00,
2013-05-29 13:55:00,57.4,52.2,29.68,NE,51,6.5,6.5,83,0.01,,---,0.02,VWS V14.01,2013-05-29 19:55:00,
2013-05-29 13:56:00,57.9,52.7,29.68,ESE,110,0.0,5.9,83,0.00,,---,0.02,VWS V14.01,2013-05-29 19:56:00,
2013-05-29 13:57:00,58.2,52.9,29.68,NNE,17,7.3,7.3,82,0.00,,---,0.02,VWS V14.01,2013-05-29 19:57:00,
2013-05-29 13:58:00,58.5,52.7,29.68,East,89,0.0,3.2,81,0.00,,---,0.02,VWS V14.01,2013-05-29 19:58:00,
2013-05-29 13:59:00,58.7,52.4,29.68,East,100,8.0,10.8,80,0.00,,---,0.02,VWS V14.01,2013-05-29 19:59:00,
2013-05-29 14:00:00,58.7,52.4,29.68,North,349,7.2,10.7,80,0.00,,---,0.02,VWS V14.01,2013-05-29 20:00:00,
2013-05-29 14:01:00,58.9,52.4,29.68,NE,55,7.6,8.9,79,0.00,,---,0.02,VWS V14.01,2013-05-29 20:01:00,
2013-05-29 14:02:00,58.9,52.2,29.68,NNE,15,3.4,5.2,78,0.00,,---,0.02,VWS V14.01,2013-05-29 20:02:00,
2013-05-29 14:03:00,58.9,52.0,29.68,North,8,3.1,7.1,78,0.00,,---,0.02,VWS V14.01,2013-05-29 20:03:00,
2013-05-29 14:04:00,58.9,51.8,29.68,NW,318,0.0,4.3,77,0.00,,---,0.02,VWS V14.01,2013-05-29 20:04:00,
2013-05-29 14:05:00,58.9,51.8,29.68,NW,318,0.0,4.3,77,0.00,,---,0.02,VWS V14.01,2013-05-29 20:05:00,
2013-05-29 14:06:00,58.8,51.9,29.67,SE,136,4.3,9.5,78,0.00,,---,0.02,VWS V14.01,2013-05-29 20:06:00,
2013-05-29 14:07:00,58.7,51.8,29.67,NE,34,5.0,8.8,78,0.00,,---,0.02,VWS V14.01,2013-05-29 20:07:00,
2013-05-29 14:08:00,58.6,51.6,29.68,East,94,10.9,11.6,78,0.00,,---,0.02,VWS V14.01,2013-05-29 20:08:00,
2013-05-29 14:09:00,58.5,51.4,29.68,ENE,66,0.0,5.5,77,0.00,,---,0.02,VWS V14.01,2013-05-29 20:09:00,
2013-05-29 14:10:00,58.5,51.4,29.68,ENE,66,0.0,5.5,77,0.00,,---,0.02,VWS V14.01,2013-05-29 20:10:00,
2013-05-29 14:11:00,58.4,51.5,29.68,NE,41,0.0,5.3,78,0.00,,---,0.02,VWS V14.01,2013-05-29 20:11:00,
2013-05-29 14:12:00,58.5,51.6,29.68,ENE,69,0.0,0.0,78,0.00,,---,0.02,VWS V14.01,2013-05-29 20:12:00,
2013-05-29 14:13:00,58.7,51.6,29.68,ESE,105,5.4,7.5,77,0.00,,---,0.02,VWS V14.01,2013-05-29 20:13:00,
2013-05-29 14:14:00,58.9,51.8,29.68,ESE,104,0.0,0.0,77,0.00,,---,0.02,VWS V14.01,2013-05-29 20:14:00,
2013-05-29 14:15:00,58.9,51.8,29.68,ESE,104,0.0,0.0,77,0.00,,---,0.02,VWS V14.01,2013-05-29 20:15:00,
2013-05-29 14:16:00,59.4,51.8,29.68,ENE,59,8.8,9.1,76,0.00,,---,0.02,VWS V14.01,2013-05-29 20:16:00,
2013-05-29 14:17:00,59.5,51.5,29.67,NNE,22,4.7,8.5,75,0.00,,---,0.02,VWS V14.01,2013-05-29 20:17:00,
2013-05-29 14:18:00,59.7,51.7,29.68,East,98,6.8,8.6,75,0.00,,---,0.02,VWS V14.01,2013-05-29 20:18:00,
2013-05-29 14:19:00,59.8,51.7,29.68,NE,34,6.6,8.5,75,0.00,,---,0.02,VWS V14.01,2013-05-29 20:19:00,
2013-05-29 14:20:00,59.8,51.7,29.68,NNE,24,5.0,8.5,75,0.00,,---,0.02,VWS V14.01,2013-05-29 20:20:00,
2013-05-29 14:21:00,59.9,51.4,29.67,North,11,3.0,3.0,73,0.00,,---,0.02,VWS V14.01,2013-05-29 20:21:00,
2013-05-29 14:22:00,59.9,51.5,29.67,ENE,72,3.2,8.7,74,0.00,,---,0.02,VWS V14.01,2013-05-29 20:22:00,
2013-05-29 14:23:00,59.9,51.7,29.67,ENE,77,3.5,6.2,74,0.00,,---,0.02,VWS V14.01,2013-05-29 20:23:00,
2013-05-29 14:24:00,60.0,51.7,29.67,ENE,66,5.8,9.1,74,0.00,,---,0.02,VWS V14.01,2013-05-29 20:24:00,
2013-05-29 14:25:00,60.0,51.7,29.67,ENE,66,5.8,9.1,74,0.00,,---,0.02,VWS V14.01,2013-05-29 20:25:00,
2013-05-29 14:26:00,60.2,51.9,29.67,East,83,0.0,0.0,74,0.00,,---,0.02,VWS V14.01,2013-05-29 20:26:00,
2013-05-29 14:27:00,60.4,52.1,29.67,ENE,76,0.0,0.0,74,0.00,,---,0.02,VWS V14.01,2013-05-29 20:27:00,
2013-05-29 14:28:00,60.6,52.6,29.67,East,89,7.1,7.1,75,0.00,,---,0.02,VWS V14.01,2013-05-29 20:28:00,
2013-05-29 14:29:00,60.8,52.0,29.67,ESE,105,3.4,7.1,73,0.00,,---,0.02,VWS V14.01,2013-05-29 20:29:00,
2013-05-29 14:30:00,60.8,52.0,29.67,ESE,105,3.4,7.1,73,0.00,,---,0.02,VWS V14.01,2013-05-29 20:30:00,
2013-05-29 14:31:00,61.0,51.3,29.67,East,93,5.2,8.3,70,0.00,,---,0.02,VWS V14.01,2013-05-29 20:31:00,
2013-05-29 14:32:00,61.0,51.3,29.67,SE,127,0.0,4.2,70,0.00,,---,0.02,VWS V14.01,2013-05-29 20:32:00,
2013-05-29 14:33:00,61.1,51.1,29.67,East,83,3.5,4.2,70,0.00,,---,0.02,VWS V14.01,2013-05-29 20:33:00,
2013-05-29 14:34:00,61.3,51.3,29.67,East,98,5.0,8.5,70,0.00,,---,0.02,VWS V14.01,2013-05-29 20:34:00,
2013-05-29 14:35:00,61.3,51.3,29.67,East,98,5.0,8.5,70,0.00,,---,0.02,VWS V14.01,2013-05-29 20:35:00,
2013-05-29 14:36:00,61.5,51.2,29.67,SE,127,10.3,10.3,69,0.00,,---,0.02,VWS V14.01,2013-05-29 20:36:00,
2013-05-29 14:37:00,61.5,51.1,29.67,ESE,121,4.7,5.8,69,0.00,,---,0.02,VWS V14.01,2013-05-29 20:37:00,
2013-05-29 14:38:00,61.6,51.4,29.67,ESE,105,6.3,7.5,69,0.00,,---,0.02,VWS V14.01,2013-05-29 20:38:00,
2013-05-29 14:39:00,61.7,51.4,29.67,East,80,8.7,8.7,69,0.00,,---,0.02,VWS V14.01,2013-05-29 20:39:00,
2013-05-29 14:40:00,61.7,51.4,29.67,East,80,8.7,8.7,69,0.00,,---,0.02,VWS V14.01,2013-05-29 20:40:00,
2013-05-29 14:41:00,61.7,51.2,29.67,NE,46,2.5,5.0,68,0.00,,---,0.02,VWS V14.01,2013-05-29 20:41:00,
2013-05-29 14:42:00,61.8,51.3,29.67,East,91,5.9,6.8,68,0.00,,---,0.02,VWS V14.01,2013-05-29 20:42:00,
2013-05-29 14:43:00,61.8,51.1,29.67,ENE,65,4.3,7.2,68,0.00,,---,0.02,VWS V14.01,2013-05-29 20:43:00,
2013-05-29 14:44:00,61.8,51.2,29.67,SE,134,0.0,3.1,68,0.00,,---,0.02,VWS V14.01,2013-05-29 20:44:00,
2013-05-29 14:45:00,61.8,51.1,29.67,SE,134,0.0,3.1,68,0.00,,---,0.02,VWS V14.01,2013-05-29 20:45:00,
2013-05-29 14:46:00,62.0,51.0,29.67,NE,49,2.3,3.3,67,0.00,,---,0.02,VWS V14.01,2013-05-29 20:46:00,
2013-05-29 14:47:00,62.0,51.0,29.67,NE,37,4.5,10.9,67,0.00,,---,0.02,VWS V14.01,2013-05-29 20:47:00,
2013-05-29 14:48:00,62.1,51.3,29.67,NE,42,0.0,0.0,68,0.00,,---,0.02,VWS V14.01,2013-05-29 20:48:00,
2013-05-29 14:49:00,62.3,51.6,29.67,NE,51,0.0,0.0,68,0.00,,---,0.02,VWS V14.01,2013-05-29 20:49:00,
2013-05-29 14:50:00,62.3,51.6,29.67,NE,51,0.0,0.0,68,0.00,,---,0.02,VWS V14.01,2013-05-29 20:50:00,
2013-05-29 14:51:00,62.6,51.3,29.67,ESE,107,6.3,7.4,67,0.00,,---,0.02,VWS V14.01,2013-05-29 20:51:00,
2013-05-29 14:52:00,62.7,51.4,29.67,ESE,108,0.0,0.0,66,0.00,,---,0.02,VWS V14.01,2013-05-29 20:52:00,
2013-05-29 14:53:00,62.9,51.3,29.67,ENE,75,7.8,7.8,66,0.00,,---,0.02,VWS V14.01,2013-05-29 20:53:00,
2013-05-29 14:54:00,62.9,50.8,29.67,ENE,65,4.6,8.5,65,0.00,,---,0.02,VWS V14.01,2013-05-29 20:54:00,
2013-05-29 14:55:00,62.9,50.8,29.66,ENE,65,4.6,8.5,65,0.00,,---,0.02,VWS V14.01,2013-05-29 20:55:00,
2013-05-29 14:56:00,63.0,50.9,29.67,NE,35,0.0,0.0,65,0.00,,---,0.02,VWS V14.01,2013-05-29 20:56:00,
2013-05-29 14:57:00,63.1,50.9,29.67,ESE,117,4.2,6.8,64,0.00,,---,0.02,VWS V14.01,2013-05-29 20:57:00,
2013-05-29 14:58:00,63.2,50.8,29.67,ESE,117,0.0,0.0,64,0.00,,---,0.02,VWS V14.01,2013-05-29 20:58:00,
2013-05-29 14:59:00,63.2,50.5,29.67,ESE,118,5.2,5.3,63,0.00,,---,0.02,VWS V14.01,2013-05-29 20:59:00,
2013-05-29 15:00:00,63.2,50.4,29.66,ESE,121,4.3,5.3,63,0.00,,---,0.02,VWS V14.01,2013-05-29 21:00:00,
2013-05-29 15:01:00,63.1,50.7,29.67,East,89,2.8,4.5,64,0.00,,---,0.02,VWS V14.01,2013-05-29 21:01:00,
2013-05-29 15:02:00,63.1,50.6,29.67,SE,139,3.4,5.7,64,0.00,,---,0.02,VWS V14.01,2013-05-29 21:02:00,
2013-05-29 15:03:00,63.0,50.8,29.67,SE,139,0.0,0.0,64,0.00,,---,0.02,VWS V14.01,2013-05-29 21:03:00,
2013-05-29 15:04:00,63.0,51.2,29.67,SE,139,0.0,0.0,65,0.00,,---,0.02,VWS V14.01,2013-05-29 21:04:00,
2013-05-29 15:05:00,63.0,51.2,29.67,SE,139,0.0,0.0,65,0.00,,---,0.02,VWS V14.01,2013-05-29 21:05:00,
2013-05-29 15:06:00,63.0,51.2,29.67,SSE,163,3.4,4.5,65,0.00,,---,0.02,VWS V14.01,2013-05-29 21:06:00,
2013-05-29 15:07:00,63.0,50.8,29.67,SE,128,4.3,4.3,64,0.00,,---,0.02,VWS V14.01,2013-05-29 21:07:00,
2013-05-29 15:08:00,63.1,50.8,29.67,ENE,66,0.0,3.0,64,0.00,,---,0.02,VWS V14.01,2013-05-29 21:08:00,
2013-05-29 15:09:00,63.2,51.0,29.67,ENE,66,0.0,0.0,64,0.00,,---,0.02,VWS V14.01,2013-05-29 21:09:00,
2013-05-29 15:10:00,63.2,51.0,29.67,ENE,66,0.0,0.0,64,0.00,,---,0.02,VWS V14.01,2013-05-29 21:10:00,
2013-05-29 15:11:00,63.5,51.1,29.67,ENE,66,0.0,0.0,64,0.00,,---,0.02,VWS V14.01,2013-05-29 21:11:00,
2013-05-29 15:12:00,63.6,50.6,29.68,ENE,66,0.0,0.0,63,0.00,,---,0.02,VWS V14.01,2013-05-29 21:12:00,
2013-05-29 15:13:00,63.7,50.7,29.67,ENE,66,0.0,0.0,63,0.00,,---,0.02,VWS V14.01,2013-05-29 21:13:00,
2013-05-29 15:14:00,63.8,50.7,29.67,NNE,15,5.1,6.5,62,0.00,,---,0.02,VWS V14.01,2013-05-29 21:14:00,
2013-05-29 15:15:00,63.9,50.6,29.67,NNE,15,5.1,6.5,62,0.00,,---,0.02,VWS V14.01,2013-05-29 21:15:00,
2013-05-29 15:16:00,63.8,49.8,29.67,NNE,15,0.0,0.0,60,0.00,,---,0.02,VWS V14.01,2013-05-29 21:16:00,
2013-05-29 15:17:00,63.8,49.8,29.67,NNE,15,0.0,0.0,60,0.00,,---,0.02,VWS V14.01,2013-05-29 21:17:00,
2013-05-29 15:18:00,64.0,50.2,29.67,NNE,15,0.0,0.0,61,0.00,,---,0.02,VWS V14.01,2013-05-29 21:18:00,
2013-05-29 15:19:00,64.1,49.9,29.68,NNE,15,0.0,0.0,60,0.00,,---,0.02,VWS V14.01,2013-05-29 21:19:00,
2013-05-29 15:20:00,64.1,49.9,29.68,NNE,15,0.0,0.0,60,0.00,,---,0.02,VWS V14.01,2013-05-29 21:20:00,
2013-05-29 15:21:00,64.2,49.1,29.67,NNE,15,0.0,0.0,58,0.00,,---,0.02,VWS V14.01,2013-05-29 21:21:00,
2013-05-29 15:22:00,64.2,48.9,29.67,NNE,15,0.0,0.0,58,0.00,,---,0.02,VWS V14.01,2013-05-29 21:22:00,
2013-05-29 15:23:00,64.3,49.5,29.67,NNE,15,0.0,0.0,59,0.00,,---,0.02,VWS V14.01,2013-05-29 21:23:00,
2013-05-29 15:24:00,64.5,50.5,29.67,NNE,15,0.0,0.0,60,0.00,,---,0.02,VWS V14.01,2013-05-29 21:24:00,
2013-05-29 15:25:00,64.5,50.5,29.67,NNE,15,0.0,0.0,60,0.00,,---,0.02,VWS V14.01,2013-05-29 21:25:00,
2013-05-29 15:26:00,64.8,50.9,29.67,NNE,15,0.0,0.0,61,0.00,,---,0.02,VWS V14.01,2013-05-29 21:26:00,
2013-05-29 15:27:00,65.0,50.7,29.67,NNE,15,0.0,0.0,60,0.00,,---,0.02,VWS V14.01,2013-05-29 21:27:00,
2013-05-29 15:28:00,65.1,50.8,29.67,NNE,15,0.0,0.0,60,0.00,,---,0.02,VWS V14.01,2013-05-29 21:28:00,
2013-05-29 15:29:00,65.2,50.9,29.67,NNE,15,0.0,0.0,60,0.00,,---,0.02,VWS V14.01,2013-05-29 21:29:00,
2013-05-29 15:30:00,65.2,50.9,29.66,NNE,15,0.0,0.0,60,0.00,,---,0.02,VWS V14.01,2013-05-29 21:30:00,
2013-05-29 15:31:00,65.5,51.1,29.67,NNE,15,0.0,0.0,60,0.00,,---,0.02,VWS V14.01,2013-05-29 21:31:00,
2013-05-29 15:32:00,65.5,50.5,29.67,ESE,110,6.4,7.3,58,0.00,,---,0.02,VWS V14.01,2013-05-29 21:32:00,
2013-05-29 15:33:00,65.5,49.5,29.67,SE,128,0.0,4.5,56,0.00,,---,0.02,VWS V14.01,2013-05-29 21:33:00,
2013-05-29 15:34:00,65.4,49.3,29.67,SE,128,0.0,0.0,56,0.00,,---,0.02,VWS V14.01,2013-05-29 21:34:00,
2013-05-29 15:35:00,65.4,49.3,29.66,SE,128,0.0,0.0,56,0.00,,---,0.02,VWS V14.01,2013-05-29 21:35:00,
2013-05-29 15:36:00,65.3,49.3,29.67,SE,128,0.0,0.0,56,0.00,,---,0.02,VWS V14.01,2013-05-29 21:36:00,
2013-05-29 15:37:00,65.3,49.6,29.67,SE,128,0.0,0.0,57,0.00,,---,0.02,VWS V14.01,2013-05-29 21:37:00,
2013-05-29 15:38:00,65.3,49.7,29.66,SE,128,0.0,0.0,57,0.00,,---,0.02,VWS V14.01,2013-05-29 21:38:00,
2013-05-29 15:39:00,65.4,49.7,29.67,SE,128,0.0,0.0,57,0.00,,---,0.02,VWS V14.01,2013-05-29 21:39:00,
2013-05-29 15:40:00,65.4,49.7,29.66,SE,128,0.0,0.0,57,0.00,,---,0.02,VWS V14.01,2013-05-29 21:40:00,
2013-05-29 15:41:00,65.5,49.0,29.67,SE,131,0.0,2.9,55,0.00,,---,0.02,VWS V14.01,2013-05-29 21:41:00,
2013-05-29 15:42:00,65.5,48.2,29.67,NE,39,0.0,4.8,54,0.00,,---,0.02,VWS V14.01,2013-05-29 21:42:00,
2013-05-29 15:43:00,65.3,47.9,29.67,NE,39,0.0,0.0,53,0.00,,---,0.02,VWS V14.01,2013-05-29 21:43:00,
2013-05-29 15:44:00,65.3,48.0,29.67,NE,56,0.0,0.0,54,0.00,,---,0.02,VWS V14.01,2013-05-29 21:44:00,
2013-05-29 15:45:00,65.3,47.9,29.66,NE,39,0.0,0.0,53,0.00,,---,0.02,VWS V14.01,2013-05-29 21:45:00,
2013-05-29 15:46:00,64.8,47.5,29.67,NE,56,0.0,0.0,54,0.00,,---,0.02,VWS V14.01,2013-05-29 21:46:00,
2013-05-29 15:47:00,64.7,47.6,29.67,NE,56,0.0,0.0,54,0.00,,---,0.02,VWS V14.01,2013-05-29 21:47:00,
2013-05-29 15:48:00,64.4,47.8,29.66,NE,56,0.0,0.0,55,0.00,,---,0.02,VWS V14.01,2013-05-29 21:48:00,
2013-05-29 15:49:00,64.3,47.7,29.66,NE,56,0.0,0.0,55,0.00,,---,0.02,VWS V14.01,2013-05-29 21:49:00,
2013-05-29 15:50:00,64.5,47.7,29.66,NE,56,0.0,0.0,54,0.00,,---,0.02,VWS V14.01,2013-05-29 21:50:00,
2013-05-29 15:51:00,63.8,47.2,29.67,NE,56,0.0,0.0,55,0.00,,---,0.02,VWS V14.01,2013-05-29 21:51:00,
2013-05-29 15:52:00,63.5,46.8,29.67,NE,56,0.0,0.0,54,0.00,,---,0.02,VWS V14.01,2013-05-29 21:52:00,
2013-05-29 15:53:00,63.3,46.4,29.67,NE,56,0.0,0.0,54,0.00,,---,0.02,VWS V14.01,2013-05-29 21:53:00,
2013-05-29 15:54:00,63.0,46.3,29.67,NE,56,0.0,0.0,54,0.00,,---,0.02,VWS V14.01,2013-05-29 21:54:00,
2013-05-29 15:55:00,63.5,46.7,29.66,NE,56,0.0,0.0,54,0.00,,---,0.02,VWS V14.01,2013-05-29 21:55:00,
2013-05-29 15:56:00,62.5,46.8,29.67,NNE,32,0.0,0.0,56,0.00,,---,0.02,VWS V14.01,2013-05-29 21:56:00,
2013-05-29 15:57:00,62.4,47.0,29.67,NNE,32,0.0,0.0,57,0.00,,---,0.02,VWS V14.01,2013-05-29 21:57:00,
2013-05-29 15:58:00,62.2,47.1,29.67,NNE,32,0.0,0.0,58,0.00,,---,0.02,VWS V14.01,2013-05-29 21:58:00,
2013-05-29 15:59:00,62.0,47.2,29.67,NNE,28,0.0,0.0,58,0.00,,---,0.02,VWS V14.01,2013-05-29 21:59:00,
2013-05-29 16:00:00,62.6,46.7,29.66,NNE,32,0.0,0.0,56,0.00,,---,0.02,VWS V14.01,2013-05-29 22:00:00,
2013-05-29 16:01:00,61.7,47.6,29.67,NE,51,4.5,4.5,60,0.00,,---,0.02,VWS V14.01,2013-05-29 22:01:00,
2013-05-29 16:02:00,61.5,47.7,29.67,ENE,59,0.0,0.0,60,0.00,,---,0.02,VWS V14.01,2013-05-29 22:02:00,
2013-05-29 16:03:00,61.4,47.6,29.67,ENE,59,0.0,0.0,60,0.00,,---,0.02,VWS V14.01,2013-05-29 22:03:00,
2013-05-29 16:04:00,61.3,47.7,29.66,ENE,59,0.0,0.0,61,0.00,,---,0.02,VWS V14.01,2013-05-29 22:04:00,
2013-05-29 16:05:00,62.0,47.3,29.66,NNE,20,4.7,4.9,59,0.00,,---,0.02,VWS V14.01,2013-05-29 22:05:00,
2013-05-29 16:06:00,61.0,47.7,29.66,NE,52,0.0,0.0,62,0.00,,---,0.02,VWS V14.01,2013-05-29 22:06:00,
2013-05-29 16:07:00,61.0,47.9,29.66,NE,52,0.0,0.0,62,0.00,,---,0.02,VWS V14.01,2013-05-29 22:07:00,
2013-05-29 16:08:00,60.9,47.9,29.66,NE,52,0.0,0.0,62,0.00,,---,0.02,VWS V14.01,2013-05-29 22:08:00,
2013-05-29 16:09:00,60.9,48.2,29.66,NE,52,0.0,0.0,63,0.00,,---,0.02,VWS V14.01,2013-05-29 22:09:00,
2013-05-29 16:10:00,61.5,47.7,29.66,ENE,59,0.0,0.0,60,0.00,,---,0.02,VWS V14.01,2013-05-29 22:10:00,
2013-05-29 16:11:00,60.9,48.4,29.66,NE,52,0.0,0.0,63,0.00,,---,0.02,VWS V14.01,2013-05-29 22:11:00,
2013-05-29 16:12:00,60.9,48.6,29.66,NE,52,0.0,0.0,64,0.00,,---,0.02,VWS V14.01,2013-05-29 22:12:00,
2013-05-29 16:13:00,60.9,48.8,29.66,NE,52,0.0,0.0,64,0.00,,---,0.02,VWS V14.01,2013-05-29 22:13:00,
2013-05-29 16:14:00,60.9,48.8,29.66,NE,52,0.0,0.0,64,0.00,,---,0.02,VWS V14.01,2013-05-29 22:14:00,
2013-05-29 16:15:00,61.0,47.7,29.66,NE,52,0.0,0.0,62,0.00,,---,0.02,VWS V14.01,2013-05-29 22:15:00,
2013-05-29 16:16:00,61.0,48.9,29.66,NE,52,0.0,0.0,64,0.00,,---,0.02,VWS V14.01,2013-05-29 22:16:00,
2013-05-29 16:17:00,60.9,48.7,29.66,NE,52,0.0,0.0,64,0.00,,---,0.02,VWS V14.01,2013-05-29 22:17:00,
2013-05-29 16:18:00,60.9,48.7,29.65,NE,52,0.0,0.0,64,0.00,,---,0.02,VWS V14.01,2013-05-29 22:18:00,
2013-05-29 16:19:00,60.9,48.7,29.65,East,79,4.8,6.3,64,0.00,,---,0.02,VWS V14.01,2013-05-29 22:19:00,
2013-05-29 16:20:00,60.9,48.5,29.65,East,84,0.0,4.8,64,0.00,,---,0.02,VWS V14.01,2013-05-29 22:20:00,
2013-05-29 16:21:00,60.8,48.3,29.65,East,84,0.0,0.0,63,0.00,,---,0.02,VWS V14.01,2013-05-29 22:21:00,
2013-05-29 16:22:00,60.7,48.4,29.65,East,84,0.0,0.0,64,0.00,,---,0.02,VWS V14.01,2013-05-29 22:22:00,
2013-05-29 16:23:00,60.8,48.6,29.64,NE,38,0.0,0.0,64,0.00,,---,0.02,VWS V14.01,2013-05-29 22:23:00,
2013-05-29 16:24:00,60.8,48.6,29.64,NE,38,3.4,3.4,64,0.00,,---,0.02,VWS V14.01,2013-05-29 22:24:00,
2013-05-29 16:25:00,60.7,48.4,29.64,NE,38,0.0,0.0,64,0.00,,---,0.02,VWS V14.01,2013-05-29 22:25:00,
2013-05-29 16:26:00,60.7,48.3,29.64,NE,38,0.0,0.0,64,0.00,,---,0.02,VWS V14.01,2013-05-29 22:26:00,
2013-05-29 16:27:00,60.8,48.4,29.64,NE,39,5.4,7.3,64,0.00,,---,0.02,VWS V14.01,2013-05-29 22:27:00,
2013-05-29 16:28:00,60.7,48.3,29.64,NNE,22,0.0,0.0,64,0.00,,---,0.02,VWS V14.01,2013-05-29 22:28:00,
2013-05-29 16:29:00,60.8,48.6,29.64,NNE,22,0.0,0.0,64,0.00,,---,0.02,VWS V14.01,2013-05-29 22:29:00,
2013-05-29 16:30:00,60.8,48.4,29.64,NNE,25,6.1,6.1,64,0.00,,---,0.02,VWS V14.01,2013-05-29 22:30:00,
2013-05-29 16:31:00,60.8,48.2,29.64,NNE,14,5.2,5.4,63,0.00,,---,0.02,VWS V14.01,2013-05-29 22:31:00,
2013-05-29 16:32:00,60.7,48.0,29.64,NNW,345,0.0,0.0,63,0.00,,---,0.02,VWS V14.01,2013-05-29 22:32:00,
2013-05-29 16:33:00,60.8,48.1,29.64,NNE,21,0.0,0.0,63,0.00,,---,0.02,VWS V14.01,2013-05-29 22:33:00,
2013-05-29 16:34:00,60.8,47.9,29.64,NNW,338,0.0,5.4,62,0.00,,---,0.02,VWS V14.01,2013-05-29 22:34:00,
2013-05-29 16:35:00,60.7,47.8,29.64,NNE,20,3.2,3.3,62,0.00,,---,0.02,VWS V14.01,2013-05-29 22:35:00,
2013-05-29 16:36:00,60.7,47.8,29.64,NNE,31,0.0,0.0,62,0.00,,---,0.02,VWS V14.01,2013-05-29 22:36:00,
2013-05-29 16:37:00,60.7,47.9,29.64,NNE,31,0.0,0.0,63,0.00,,---,0.02,VWS V14.01,2013-05-29 22:37:00,
2013-05-29 16:38:00,60.7,48.1,29.64,NNE,31,0.0,0.0,63,0.00,,---,0.02,VWS V14.01,2013-05-29 22:38:00,
2013-05-29 16:39:00,60.7,48.2,29.64,ESE,114,2.9,6.8,63,0.00,,---,0.02,VWS V14.01,2013-05-29 22:39:00,
2013-05-29 16:40:00,60.7,48.3,29.65,SE,124,0.0,0.0,64,0.00,,---,0.02,VWS V14.01,2013-05-29 22:40:00,
2013-05-29 16:41:00,60.8,48.5,29.65,SE,124,0.0,0.0,64,0.00,,---,0.02,VWS V14.01,2013-05-29 22:41:00,
2013-05-29 16:42:00,60.9,48.7,29.65,SE,124,0.0,0.0,64,0.00,,---,0.02,VWS V14.01,2013-05-29 22:42:00,
2013-05-29 16:43:00,60.9,48.5,29.65,SE,124,0.0,0.0,64,0.00,,---,0.02,VWS V14.01,2013-05-29 22:43:00,
2013-05-29 16:44:00,61.0,48.6,29.65,SE,124,0.0,0.0,64,0.00,,---,0.02,VWS V14.01,2013-05-29 22:44:00,
2013-05-29 16:45:00,61.0,48.2,29.65,SE,124,0.0,0.0,63,0.00,,---,0.02,VWS V14.01,2013-05-29 22:45:00,
2013-05-29 16:46:00,61.0,48.0,29.65,SE,124,0.0,0.0,62,0.00,,---,0.02,VWS V14.01,2013-05-29 22:46:00,
2013-05-29 16:47:00,61.1,48.2,29.65,SE,124,0.0,0.0,62,0.00,,---,0.02,VWS V14.01,2013-05-29 22:47:00,
2013-05-29 16:48:00,61.2,48.6,29.65,SE,124,0.0,0.0,63,0.00,,---,0.02,VWS V14.01,2013-05-29 22:48:00,
2013-05-29 16:49:00,61.2,48.7,29.64,SE,124,0.0,0.0,63,0.00,,---,0.02,VWS V14.01,2013-05-29 22:49:00,
2013-05-29 16:50:00,61.4,48.5,29.64,NE,44,3.3,5.1,63,0.00,,---,0.02,VWS V14.01,2013-05-29 22:50:00,
2013-05-29 16:51:00,61.4,48.3,29.64,NE,44,0.0,0.0,62,0.00,,---,0.02,VWS V14.01,2013-05-29 22:51:00,
2013-05-29 16:52:00,61.5,48.5,29.64,NE,44,0.0,0.0,62,0.00,,---,0.02,VWS V14.01,2013-05-29 22:52:00,
2013-05-29 16:53:00,61.6,48.5,29.65,NE,44,0.0,0.0,62,0.00,,---,0.02,VWS V14.01,2013-05-29 22:53:00,
2013-05-29 16:54:00,61.8,48.3,29.65,ENE,60,0.0,0.0,61,0.00,,---,0.02,VWS V14.01,2013-05-29 22:54:00,
2013-05-29 16:55:00,61.9,48.4,29.65,ENE,60,0.0,0.0,61,0.00,,---,0.02,VWS V14.01,2013-05-29 22:55:00,
2013-05-29 16:56:00,62.0,48.4,29.66,ENE,60,0.0,0.0,61,0.00,,---,0.02,VWS V14.01,2013-05-29 22:56:00,
2013-05-29 16:57:00,62.1,48.5,29.66,ENE,60,0.0,0.0,61,0.00,,---,0.02,VWS V14.01,2013-05-29 22:57:00,
2013-05-29 16:58:00,62.3,48.7,29.66,ENE,60,0.0,0.0,61,0.00,,---,0.02,VWS V14.01,2013-05-29 22:58:00,
2013-05-29 16:59:00,62.4,49.1,29.66,ENE,60,0.0,0.0,62,0.00,,---,0.02,VWS V14.01,2013-05-29 22:59:00,
2013-05-29 17:00:00,62.7,49.5,29.66,ENE,60,0.0,0.0,62,0.00,,---,0.02,VWS V14.01,2013-05-29 23:00:00,
2013-05-29 17:01:00,62.9,49.7,29.66,ENE,60,0.0,0.0,62,0.00,,---,0.02,VWS V14.01,2013-05-29 23:01:00,
2013-05-29 17:02:00,63.2,49.9,29.66,ENE,60,0.0,0.0,62,0.00,,---,0.02,VWS V14.01,2013-05-29 23:02:00,
2013-05-29 17:03:00,63.4,50.0,29.66,ENE,60,0.0,0.0,62,0.00,,---,0.02,VWS V14.01,2013-05-29 23:03:00,
2013-05-29 17:04:00,63.6,49.9,29.66,ENE,60,0.0,0.0,61,0.00,,---,0.02,VWS V14.01,2013-05-29 23:04:00,
2013-05-29 17:05:00,63.9,50.0,29.66,ENE,60,0.0,0.0,61,0.00,,---,0.02,VWS V14.01,2013-05-29 23:05:00,
2013-05-29 17:06:00,64.1,49.8,29.66,ENE,60,0.0,0.0,60,0.00,,---,0.02,VWS V14.01,2013-05-29 23:06:00,
2013-05-29 17:07:00,64.2,49.9,29.66,ENE,60,0.0,0.0,60,0.00,,---,0.02,VWS V14.01,2013-05-29 23:07:00,
2013-05-29 17:08:00,64.4,49.9,29.66,ENE,60,1.0,1.0,59,0.00,,---,0.02,VWS V14.01,2013-05-29 23:08:00,
2013-05-29 17:09:00,64.6,50.2,29.66,ENE,60,0.0,0.0,59,0.00,,---,0.02,VWS V14.01,2013-05-29 23:09:00,
2013-05-29 17:10:00,64.8,50.3,29.66,ENE,60,0.0,0.0,59,0.00,,---,0.02,VWS V14.01,2013-05-29 23:10:00,
2013-05-29 17:11:00,65.1,50.2,29.66,WSW,243,0.0,3.0,58,0.00,,---,0.02,VWS V14.01,2013-05-29 23:11:00,
2013-05-29 17:12:00,65.3,50.5,29.66,WSW,243,0.0,0.0,59,0.00,,---,0.02,VWS V14.01,2013-05-29 23:12:00,
2013-05-29 17:13:00,65.6,50.3,29.66,WSW,243,0.0,0.0,58,0.00,,---,0.02,VWS V14.01,2013-05-29 23:13:00,
2013-05-29 17:14:00,65.7,50.2,29.66,WSW,243,0.0,0.0,57,0.00,,---,0.02,VWS V14.01,2013-05-29 23:14:00,
2013-05-29 17:15:00,65.9,50.2,29.66,WSW,243,0.0,0.0,57,0.00,,---,0.02,VWS V14.01,2013-05-29 23:15:00,
2013-05-29 17:16:00,66.2,49.8,29.66,WSW,243,0.0,0.0,55,0.00,,---,0.02,VWS V14.01,2013-05-29 23:16:00,
2013-05-29 17:17:00,66.4,50.1,29.66,SSW,205,3.2,5.1,56,0.00,,---,0.02,VWS V14.01,2013-05-29 23:17:00,
2013-05-29 17:18:00,66.6,50.1,29.66,SSW,198,4.3,5.7,55,0.00,,---,0.02,VWS V14.01,2013-05-29 23:18:00,
2013-05-29 17:19:00,66.7,50.0,29.66,SW,226,0.0,0.0,55,0.00,,---,0.02,VWS V14.01,2013-05-29 23:19:00,
2013-05-29 17:20:00,66.9,50.1,29.66,SW,231,0.0,4.2,55,0.00,,---,0.02,VWS V14.01,2013-05-29 23:20:00,
2013-05-29 17:21:00,67.0,49.8,29.66,SW,231,0.0,0.0,54,0.00,,---,0.02,VWS V14.01,2013-05-29 23:21:00,
2013-05-29 17:22:00,67.0,49.5,29.66,SW,231,0.0,0.0,53,0.00,,---,0.02,VWS V14.01,2013-05-29 23:22:00,
2013-05-29 17:23:00,67.1,49.5,29.65,SW,231,0.0,0.0,53,0.00,,---,0.02,VWS V14.01,2013-05-29 23:23:00,
2013-05-29 17:24:00,67.3,49.7,29.66,SW,231,0.0,0.0,53,0.00,,---,0.02,VWS V14.01,2013-05-29 23:24:00,
2013-05-29 17:25:00,67.4,49.4,29.66,SW,231,0.0,0.0,52,0.00,,---,0.02,VWS V14.01,2013-05-29 23:25:00,
2013-05-29 17:26:00,67.4,48.8,29.66,SW,231,0.0,0.0,51,0.00,,---,0.02,VWS V14.01,2013-05-29 23:26:00,
2013-05-29 17:27:00,67.4,49.0,29.66,SW,218,4.5,6.8,52,0.00,,---,0.02,VWS V14.01,2013-05-29 23:27:00,
2013-05-29 17:28:00,67.5,49.0,29.65,SSW,194,0.0,3.1,51,0.00,,---,0.02,VWS V14.01,2013-05-29 23:28:00,
2013-05-29 17:29:00,67.6,49.2,29.65,SSW,194,0.0,0.0,52,0.00,,---,0.02,VWS V14.01,2013-05-29 23:29:00,
2013-05-29 17:30:00,67.6,49.1,29.65,SSW,194,0.0,0.0,51,0.00,,---,0.02,VWS V14.01,2013-05-29 23:30:00,
2013-05-29 17:31:00,67.8,49.2,29.65,SSW,197,0.0,0.0,51,0.00,,---,0.02,VWS V14.01,2013-05-29 23:31:00,
2013-05-29 17:32:00,67.8,48.7,29.65,SSW,197,0.0,0.0,50,0.00,,---,0.02,VWS V14.01,2013-05-29 23:32:00,
2013-05-29 17:33:00,67.9,48.8,29.65,SSW,197,0.0,0.0,50,0.00,,---,0.02,VWS V14.01,2013-05-29 23:33:00,
2013-05-29 17:34:00,68.0,48.6,29.65,SSW,197,0.0,0.0,50,0.00,,---,0.02,VWS V14.01,2013-05-29 23:34:00,
2013-05-29 17:35:00,67.9,48.4,29.64,SSW,197,0.0,0.0,50,0.00,,---,0.02,VWS V14.01,2013-05-29 23:35:00,
2013-05-29 17:36:00,67.9,48.0,29.64,SSW,197,0.0,0.0,49,0.00,,---,0.02,VWS V14.01,2013-05-29 23:36:00,
2013-05-29 17:37:00,67.9,48.0,29.64,SSW,197,0.0,0.0,49,0.00,,---,0.02,VWS V14.01,2013-05-29 23:37:00,
2013-05-29 17:38:00,67.9,47.7,29.65,SSW,197,0.0,0.0,48,0.00,,---,0.02,VWS V14.01,2013-05-29 23:38:00,
2013-05-29 17:39:00,67.8,47.6,29.65,SSW,197,0.0,0.0,48,0.00,,---,0.02,VWS V14.01,2013-05-29 23:39:00,
2013-05-29 17:40:00,67.7,47.5,29.65,SSW,197,0.0,0.0,48,0.00,,---,0.02,VWS V14.01,2013-05-29 23:40:00,
2013-05-29 17:41:00,67.6,46.8,29.65,ENE,59,3.4,6.1,47,0.00,,---,0.02,VWS V14.01,2013-05-29 23:41:00,
2013-05-29 17:42:00,67.3,45.7,29.64,ENE,59,0.0,0.0,46,0.00,,---,0.02,VWS V14.01,2013-05-29 23:42:00,
2013-05-29 17:43:00,67.2,46.2,29.64,ENE,59,0.0,0.0,47,0.00,,---,0.02,VWS V14.01,2013-05-29 23:43:00,
2013-05-29 17:44:00,67.1,46.1,29.64,ENE,59,0.0,1.9,47,0.00,,---,0.02,VWS V14.01,2013-05-29 23:44:00,
2013-05-29 17:45:00,67.1,46.0,29.64,ENE,59,0.0,0.0,47,0.00,,---,0.02,VWS V14.01,2013-05-29 23:45:00,
2013-05-29 17:46:00,67.0,46.6,29.64,ENE,59,0.0,0.0,48,0.00,,---,0.02,VWS V14.01,2013-05-29 23:46:00,
2013-05-29 17:47:00,67.1,46.7,29.64,NW,312,3.1,4.4,48,0.00,,---,0.02,VWS V14.01,2013-05-29 23:47:00,
2013-05-29 17:48:00,67.1,46.3,29.64,NW,312,0.0,0.0,47,0.00,,---,0.02,VWS V14.01,2013-05-29 23:48:00,
2013-05-29 17:49:00,66.9,45.9,29.64,NW,312,0.0,0.0,47,0.00,,---,0.02,VWS V14.01,2013-05-29 23:49:00,
2013-05-29 17:50:00,66.9,46.3,29.64,NW,312,0.0,0.0,47,0.00,,---,0.02,VWS V14.01,2013-05-29 23:50:00,
2013-05-29 17:51:00,67.0,46.3,29.64,NW,312,0.0,0.0,47,0.00,,---,0.02,VWS V14.01,2013-05-29 23:51:00,
2013-05-29 17:52:00,66.9,46.3,29.64,NW,312,0.0,0.0,47,0.00,,---,0.02,VWS V14.01,2013-05-29 23:52:00,
2013-05-29 17:53:00,66.7,46.1,29.64,NW,312,0.0,0.0,47,0.00,,---,0.02,VWS V14.01,2013-05-29 23:53:00,
2013-05-29 17:54:00,66.6,46.3,29.64,NW,312,0.0,0.0,48,0.00,,---,0.02,VWS V14.01,2013-05-29 23:54:00,
2013-05-29 17:55:00,66.5,46.3,29.64,NW,312,0.0,0.0,48,0.00,,---,0.02,VWS V14.01,2013-05-29 23:55:00,
2013-05-29 17:56:00,66.4,46.1,29.64,NW,312,0.0,0.0,48,0.00,,---,0.02,VWS V14.01,2013-05-29 23:56:00,
2013-05-29 17:57:00,66.2,46.0,29.64,NW,312,3.2,3.2,48,0.00,,---,0.02,VWS V14.01,2013-05-29 23:57:00,
2013-05-29 17:58:00,66.0,45.2,29.64,NW,312,0.0,0.0,47,0.00,,---,0.02,VWS V14.01,2013-05-29 23:58:00,
2013-05-29 17:59:00,65.9,44.2,29.64,NE,37,0.0,0.0,45,0.00,,---,0.02,VWS V14.01,2013-05-29 23:59:00,
2013-05-29 18:00:00,65.8,43.1,29.63,NE,37,0.0,0.0,44,0.00,,---,0.02,VWS V14.01,2013-05-30 00:00:00,
2013-05-29 18:01:00,65.8,43.7,29.63,NE,37,0.0,0.0,45,0.00,,---,0.02,VWS V14.01,2013-05-30 00:01:00,
2013-05-29 18:02:00,65.8,43.1,29.63,NE,37,0.0,0.0,44,0.00,,---,0.02,VWS V14.01,2013-05-30 00:02:00,
2013-05-29 18:03:00,65.7,41.9,29.63,NE,37,0.0,0.0,42,0.00,,---,0.02,VWS V14.01,2013-05-30 00:03:00,
2013-05-29 18:04:00,65.7,41.7,29.63,NE,37,0.0,0.0,42,0.00,,---,0.02,VWS V14.01,2013-05-30 00:04:00,
2013-05-29 18:05:00,65.7,41.1,29.63,NE,37,0.0,0.0,41,0.00,,---,0.02,VWS V14.01,2013-05-30 00:05:00,
2013-05-29 18:06:00,65.7,41.2,29.63,NE,37,0.0,0.0,41,0.00,,---,0.02,VWS V14.01,2013-05-30 00:06:00,
2013-05-29 18:07:00,65.6,41.2,29.63,NE,37,0.0,0.0,41,0.00,,---,0.02,VWS V14.01,2013-05-30 00:07:00,
2013-05-29 18:08:00,65.6,41.0,29.63,NE,37,0.0,0.0,40,0.00,,---,0.02,VWS V14.01,2013-05-30 00:08:00,
2013-05-29 18:09:00,65.7,41.0,29.63,NE,37,0.0,0.0,40,0.00,,---,0.02,VWS V14.01,2013-05-30 00:09:00,
2013-05-29 18:10:00,65.6,40.8,29.63,NE,37,0.0,0.0,40,0.00,,---,0.02,VWS V14.01,2013-05-30 00:10:00,
2013-05-29 18:11:00,65.6,40.3,29.63,NE,37,0.0,0.0,40,0.00,,---,0.02,VWS V14.01,2013-05-30 00:11:00,
2013-05-29 18:12:00,65.6,40.0,29.63,NE,37,0.0,0.0,39,0.00,,---,0.02,VWS V14.01,2013-05-30 00:12:00,
2013-05-29 18:13:00,65.7,40.3,29.63,NE,37,0.0,0.0,39,0.00,,---,0.02,VWS V14.01,2013-05-30 00:13:00,
2013-05-29 18:14:00,65.6,40.2,29.63,NE,37,0.0,0.0,39,0.00,,---,0.02,VWS V14.01,2013-05-30 00:14:00,
2013-05-29 18:15:00,65.6,40.3,29.63,NE,37,0.0,0.0,40,0.00,,---,0.02,VWS V14.01,2013-05-30 00:15:00,
2013-05-29 18:16:00,65.6,40.3,29.63,NE,37,0.0,0.0,39,0.00,,---,0.02,VWS V14.01,2013-05-30 00:16:00,
2013-05-29 18:17:00,65.6,39.9,29.63,NNW,338,3.4,5.1,39,0.00,,---,0.02,VWS V14.01,2013-05-30 00:17:00,
2013-05-29 18:18:00,65.6,39.5,29.63,NW,316,6.1,11.4,38,0.00,,---,0.02,VWS V14.01,2013-05-30 00:18:00,
2013-05-29 18:19:00,65.6,39.0,29.63,North,10,1.4,4.7,38,0.00,,---,0.02,VWS V14.01,2013-05-30 00:19:00,
2013-05-29 18:20:00,65.6,38.9,29.63,NNW,339,0.0,0.0,37,0.00,,---,0.02,VWS V14.01,2013-05-30 00:20:00,
2013-05-29 18:21:00,65.6,39.2,29.63,NNW,339,0.0,0.0,38,0.00,,---,0.02,VWS V14.01,2013-05-30 00:21:00,
2013-05-29 18:22:00,65.6,38.8,29.63,NW,326,0.0,0.0,37,0.00,,---,0.02,VWS V14.01,2013-05-30 00:22:00,
2013-05-29 18:23:00,65.6,38.9,29.63,North,359,1.7,6.0,37,0.00,,---,0.02,VWS V14.01,2013-05-30 00:23:00,
2013-05-29 18:24:00,65.6,39.3,29.63,North,359,0.0,0.0,38,0.00,,---,0.02,VWS V14.01,2013-05-30 00:24:00,
2013-05-29 18:25:00,65.6,38.9,29.63,NNE,14,4.7,10.0,37,0.00,,---,0.02,VWS V14.01,2013-05-30 00:25:00,
2013-05-29 18:26:00,65.6,38.7,29.63,NNE,14,0.0,0.0,37,0.00,,---,0.02,VWS V14.01,2013-05-30 00:26:00,
2013-05-29 18:27:00,65.6,38.9,29.63,NNE,32,8.1,8.1,37,0.00,,---,0.02,VWS V14.01,2013-05-30 00:27:00,
2013-05-29 18:28:00,65.6,38.9,29.64,NNE,18,0.0,0.0,37,0.00,,---,0.02,VWS V14.01,2013-05-30 00:28:00,
2013-05-29 18:29:00,65.5,38.7,29.63,NNE,18,0.0,1.3,37,0.00,,---,0.02,VWS V14.01,2013-05-30 00:29:00,
2013-05-29 18:30:00,65.6,39.5,29.64,NNE,18,0.0,0.0,38,0.00,,---,0.02,VWS V14.01,2013-05-30 00:30:00,
2013-05-29 18:31:00,65.6,39.4,29.64,NNE,17,4.2,4.2,38,0.00,,---,0.02,VWS V14.01,2013-05-30 00:31:00,
2013-05-29 18:32:00,65.6,39.3,29.64,NNE,18,2.3,4.6,38,0.00,,---,0.02,VWS V14.01,2013-05-30 00:32:00,
2013-05-29 18:33:00,65.6,39.3,29.64,NNE,13,0.0,0.0,38,0.00,,---,0.02,VWS V14.01,2013-05-30 00:33:00,
2013-05-29 18:34:00,65.6,39.9,29.64,WNW,301,0.0,4.2,39,0.00,,---,0.02,VWS V14.01,2013-05-30 00:34:00,
2013-05-29 18:35:00,65.6,0.0,29.64,NW,305,5.5,13.3,0,0.00,,---,11.15,VWS V14.01,2013-05-30 00:35:00,
2013-05-29 18:36:00,65.6,36.1,29.64,NNW,329,0.0,12.9,34,0.00,,---,4.61,VWS V14.01,2013-05-30 00:36:00,
2013-05-29 18:37:00,13.3,-7.7,0.01,North,0,4.8,11.4,38,0.00,,---,0.02,VWS V14.01,2013-05-30 00:37:00,
2013-05-29 18:38:00,65.6,39.4,29.64,West,281,5.4,12.6,38,0.00,,---,2.31,VWS V14.01,2013-05-30 00:38:00,
2013-05-29 18:39:00,65.6,39.2,29.64,NNW,339,0.0,14.4,38,0.00,,---,0.02,VWS V14.01,2013-05-30 00:39:00,
2013-05-29 18:40:00,65.6,38.9,29.49,NNW,346,0.0,12.6,37,0.00,,---,0.02,VWS V14.01,2013-05-30 00:40:00,
2013-05-29 18:41:00,65.5,38.4,29.64,NNW,338,8.6,11.9,37,0.00,,---,2.31,VWS V14.01,2013-05-30 00:41:00,
2013-05-29 18:42:00,65.5,38.4,29.64,NNW,342,6.2,6.6,37,0.00,,---,0.02,VWS V14.01,2013-05-30 00:42:00,
2013-05-29 18:43:00,65.5,38.8,0.01,NNW,345,3.4,7.8,37,0.00,,---,2.31,VWS V14.01,2013-05-30 00:43:00,
2013-05-29 18:44:00,13.3,-8.0,0.01,North,0,0.0,14.4,37,0.00,,---,0.02,VWS V14.01,2013-05-30 00:44:00,
2013-05-29 18:45:00,65.3,38.2,29.64,NW,321,4.3,9.3,37,0.00,,---,1.91,VWS V14.01,2013-05-30 00:45:00,
2013-05-29 18:46:00,13.3,-8.5,0.01,North,0,5.1,14.4,36,0.00,,---,0.02,VWS V14.01,2013-05-30 00:46:00,
2013-05-29 18:47:00,65.2,37.4,29.64,NE,49,9.5,14.4,36,0.00,,---,0.02,VWS V14.01,2013-05-30 00:47:00,
2013-05-29 18:48:00,65.1,36.7,29.64,NNE,17,11.5,14.5,35,0.00,,---,0.02,VWS V14.01,2013-05-30 00:48:00,
2013-05-29 18:49:00,64.9,35.3,29.64,NNE,31,11.6,14.5,33,0.00,,---,99.99,VWS V14.01,2013-05-30 00:49:00,
2013-05-29 18:50:00,64.8,34.0,29.64,East,84,9.8,16.3,32,0.00,,---,1.57,VWS V14.01,2013-05-30 00:50:00,
2013-05-29 18:51:00,64.6,34.0,29.64,NNW,345,5.7,14.4,32,0.00,,---,0.02,VWS V14.01,2013-05-30 00:51:00,
2013-05-29 18:52:00,64.5,34.2,29.64,North,354,6.4,9.1,32,0.00,,---,1.18,VWS V14.01,2013-05-30 00:52:00,
2013-05-29 18:53:00,64.4,34.5,29.64,North,352,0.0,14.4,33,0.00,,---,0.02,VWS V14.01,2013-05-30 00:53:00,
2013-05-29 18:54:00,64.3,34.6,29.64,North,10,6.0,14.4,33,0.00,,---,0.02,VWS V14.01,2013-05-30 00:54:00,
2013-05-29 18:55:00,64.3,34.2,29.64,NNE,21,5.9,14.4,32,0.00,,---,0.92,VWS V14.01,2013-05-30 00:55:00,
2013-05-29 18:56:00,64.2,33.8,29.64,NNE,14,7.7,14.4,32,0.00,,---,0.02,VWS V14.01,2013-05-30 00:56:00,
2013-05-29 18:57:00,64.1,33.7,29.64,NNE,32,6.4,14.4,32,0.00,,---,0.02,VWS V14.01,2013-05-30 00:57:00,
2013-05-29 18:58:00,64.0,33.4,29.64,North,357,7.5,17.7,32,0.00,,---,0.02,VWS V14.01,2013-05-30 00:58:00,
2013-05-29 18:59:00,63.8,33.4,29.64,NNE,18,13.0,14.4,32,0.00,,---,0.02,VWS V14.01,2013-05-30 00:59:00,
2013-05-29 19:00:00,63.7,33.7,29.64,North,10,13.4,14.4,32,0.00,,---,0.02,VWS V14.01,2013-05-30 01:00:00,
2013-05-29 19:01:00,63.5,33.5,29.64,North,8,8.8,14.4,32,0.00,,---,0.02,VWS V14.01,2013-05-30 01:01:00,
2013-05-29 19:02:00,63.4,33.4,29.64,NE,37,6.5,13.2,32,0.00,,---,0.02,VWS V14.01,2013-05-30 01:02:00,
2013-05-29 19:03:00,63.3,33.2,29.64,NNE,31,8.8,10.4,32,0.00,,---,0.02,VWS V14.01,2013-05-30 01:03:00,
2013-05-29 19:04:00,63.1,32.7,29.64,NNE,25,14.7,16.8,32,0.00,,---,0.02,VWS V14.01,2013-05-30 01:04:00,
2013-05-29 19:05:00,62.9,32.8,29.65,North,359,4.7,9.8,32,0.00,,---,0.02,VWS V14.01,2013-05-30 01:05:00,
2013-05-29 19:06:00,62.8,33.1,29.65,NNE,31,6.0,10.7,33,0.00,,---,0.02,VWS V14.01,2013-05-30 01:06:00,
2013-05-29 19:07:00,62.6,33.1,29.64,NNE,17,9.8,10.6,33,0.00,,---,0.02,VWS V14.01,2013-05-30 01:07:00,
2013-05-29 19:08:00,62.5,33.2,29.65,NNE,30,7.0,7.2,33,0.00,,---,0.02,VWS V14.01,2013-05-30 01:08:00,
2013-05-29 19:09:00,62.4,33.1,29.65,NNW,332,6.6,10.4,33,0.00,,---,0.02,VWS V14.01,2013-05-30 01:09:00,
2013-05-29 19:10:00,65.7,40.8,29.63,NE,37,0.0,0.0,40,0.00,,---,0.02,VWS V14.01,2013-05-30 01:10:00,
2013-05-29 19:11:00,62.3,33.5,29.65,North,7,5.3,10.0,34,0.00,,---,0.86,VWS V14.01,2013-05-30 01:11:00,
2013-05-29 19:12:00,62.3,33.6,29.65,NNE,18,9.9,14.4,34,0.00,,---,0.02,VWS V14.01,2013-05-30 01:12:00,
2013-05-29 19:13:00,62.2,33.6,29.65,NNE,31,8.6,14.4,34,0.00,,---,1.14,VWS V14.01,2013-05-30 01:13:00,
2013-05-29 19:14:00,62.1,33.3,29.65,North,354,0.0,14.4,34,0.00,,---,0.02,VWS V14.01,2013-05-30 01:14:00,
2013-05-29 19:15:00,62.1,33.1,29.65,NE,41,0.0,14.4,34,0.00,,---,0.52,VWS V14.01,2013-05-30 01:15:00,
2013-05-29 19:16:00,62.0,33.2,29.65,NNE,32,7.1,14.4,34,0.00,,---,1.14,VWS V14.01,2013-05-30 01:16:00,
2013-05-29 19:17:00,62.1,33.3,29.66,NNE,15,4.2,14.4,34,0.00,,---,0.02,VWS V14.01,2013-05-30 01:17:00,
2013-05-29 19:18:00,62.0,33.3,29.66,NNW,338,9.1,14.4,34,0.00,,---,0.02,VWS V14.01,2013-05-30 01:18:00,
2013-05-29 19:19:00,62.0,33.4,29.66,NE,48,4.2,5.4,34,0.00,,---,0.02,VWS V14.01,2013-05-30 01:19:00,
2013-05-29 19:20:00,62.0,33.3,29.66,North,359,6.1,7.4,34,0.00,,---,0.02,VWS V14.01,2013-05-30 01:20:00,
2013-05-29 19:21:00,62.0,33.4,29.66,North,359,0.0,0.0,34,0.00,,---,0.02,VWS V14.01,2013-05-30 01:21:00,
2013-05-29 19:22:00,62.0,33.6,29.66,North,359,0.0,14.4,34,0.00,,---,7.30,VWS V14.01,2013-05-30 01:22:00,
2013-05-29 19:23:00,64.5,38.9,0.01,NNW,339,0.0,13.3,39,0.00,,---,99.99,VWS V14.01,2013-05-30 01:23:00,
2013-05-29 19:24:00,61.9,33.9,29.66,NNE,25,6.8,7.4,35,0.00,,---,0.02,VWS V14.01,2013-05-30 01:24:00,
2013-05-29 19:25:00,61.9,33.8,29.66,North,359,0.0,4.7,35,0.00,,---,0.02,VWS V14.01,2013-05-30 01:25:00,
2013-05-29 19:26:00,61.9,34.0,29.66,North,359,4.3,8.8,35,0.00,,---,6.34,VWS V14.01,2013-05-30 01:26:00,
2013-05-29 19:27:00,61.8,33.6,29.66,NE,55,3.1,10.6,35,0.00,,---,0.02,VWS V14.01,2013-05-30 01:27:00,
2013-05-29 19:28:00,61.8,33.7,29.66,NNE,14,6.2,6.2,35,0.00,,---,0.02,VWS V14.01,2013-05-30 01:28:00,
2013-05-29 19:29:00,65.4,38.5,29.64,NW,323,4.5,12.0,37,0.00,,---,99.99,VWS V14.01,2013-05-30 01:29:00,
2013-05-29 19:30:00,64.3,34.3,29.64,North,11,0.0,14.4,33,0.00,,---,99.99,VWS V14.01,2013-05-30 01:30:00,
2013-05-29 19:31:00,61.6,33.4,29.66,North,8,2.4,6.4,35,0.00,,---,0.02,VWS V14.01,2013-05-30 01:31:00,
2013-05-29 19:32:00,61.5,33.5,29.66,NNE,15,0.0,0.0,35,0.00,,---,0.02,VWS V14.01,2013-05-30 01:32:00,
2013-05-29 19:33:00,71.5,42.7,0.00,NNE,15,14.4,14.4,35,0.00,,---,0.00,VWS V14.01,2013-05-30 01:33:00,
2013-05-29 19:34:00,64.9,35.3,29.64,NE,37,7.3,14.5,33,0.00,,---,99.99,VWS V14.01,2013-05-30 01:34:00,
2013-05-29 19:35:00,61.3,33.6,29.66,North,4,0.0,11.0,35,0.00,,---,0.00,VWS V14.01,2013-05-30 01:35:00,
2013-05-29 19:36:00,61.3,33.8,29.66,North,4,0.0,0.0,36,0.00,,---,0.02,VWS V14.01,2013-05-30 01:36:00,
2013-05-29 19:37:00,61.2,33.8,29.66,North,4,0.0,11.2,36,0.00,,---,0.02,VWS V14.01,2013-05-30 01:37:00,
2013-05-29 19:38:00,61.1,33.8,29.66,North,4,0.0,9.5,36,0.00,,---,0.02,VWS V14.01,2013-05-30 01:38:00,
2013-05-29 19:39:00,64.4,34.2,29.64,North,352,0.0,14.4,32,0.00,,---,99.99,VWS V14.01,2013-05-30 01:39:00,
2013-05-29 19:40:00,13.3,-8.5,0.01,North,0,11.6,11.6,36,0.00,,---,4.42,VWS V14.01,2013-05-30 01:40:00,
2013-05-29 19:41:00,61.0,34.2,29.66,North,353,0.0,2.0,36,0.00,,---,0.02,VWS V14.01,2013-05-30 01:41:00,
2013-05-29 19:42:00,60.9,33.9,29.66,North,359,0.0,13.5,36,0.00,,---,6.24,VWS V14.01,2013-05-30 01:42:00,
2013-05-29 19:43:00,60.9,33.7,29.66,North,359,0.0,13.5,36,0.00,,---,0.02,VWS V14.01,2013-05-30 01:43:00,
2013-05-29 19:44:00,60.8,33.6,29.66,North,359,0.0,0.0,36,0.00,,---,0.02,VWS V14.01,2013-05-30 01:44:00,
2013-05-29 19:45:00,60.8,33.4,29.66,NW,314,0.0,11.2,36,0.00,,---,0.02,VWS V14.01,2013-05-30 01:45:00,
2013-05-29 19:46:00,60.8,33.2,29.66,NW,314,0.0,14.4,35,0.00,,---,0.02,VWS V14.01,2013-05-30 01:46:00,
2013-05-29 19:47:00,60.8,33.3,29.66,NW,314,0.0,10.1,35,0.00,,---,0.02,VWS V14.01,2013-05-30 01:47:00,
2013-05-29 19:48:00,60.8,33.3,29.66,NW,314,0.0,0.0,35,0.00,,---,0.02,VWS V14.01,2013-05-30 01:48:00,
2013-05-29 19:49:00,60.8,33.2,29.66,North,350,0.0,14.4,35,0.00,,---,0.02,VWS V14.01,2013-05-30 01:49:00,
2013-05-29 19:50:00,60.8,33.0,29.66,WNW,300,6.2,10.3,35,0.00,,---,0.02,VWS V14.01,2013-05-30 01:50:00,
2013-05-29 19:51:00,60.8,33.0,29.66,NW,311,0.0,10.9,35,0.00,,---,0.00,VWS V14.01,2013-05-30 01:51:00,
2013-05-29 19:52:00,60.8,16.5,29.66,NW,311,0.0,11.1,18,0.00,,---,99.99,VWS V14.01,2013-05-30 01:52:00,
2013-05-29 19:53:00,60.8,33.3,29.67,North,359,3.3,14.4,35,0.00,,---,0.02,VWS V14.01,2013-05-30 01:53:00,
2013-05-29 19:54:00,60.9,32.8,29.67,North,359,3.1,14.4,35,0.00,,---,0.02,VWS V14.01,2013-05-30 01:54:00,
2013-05-29 19:55:00,60.9,32.8,0.00,North,359,0.0,14.4,35,0.00,,---,0.00,VWS V14.01,2013-05-30 01:55:00,
2013-05-29 19:56:00,60.8,32.7,29.67,NNW,338,0.0,14.4,35,0.00,,---,0.02,VWS V14.01,2013-05-30 01:56:00,
2013-05-29 19:57:00,60.8,32.8,29.67,NW,307,0.0,14.4,35,0.00,,---,0.00,VWS V14.01,2013-05-30 01:57:00,
2013-05-29 19:58:00,60.8,33.0,29.49,NW,307,0.0,14.4,35,0.00,,---,0.02,VWS V14.01,2013-05-30 01:58:00,
2013-05-29 19:59:00,71.4,42.4,0.00,East,91,0.0,14.4,35,0.00,,---,0.02,VWS V14.01,2013-05-30 01:59:00,
2013-05-29 20:00:00,60.7,33.1,29.68,NW,307,0.0,14.4,35,0.00,,---,0.00,VWS V14.01,2013-05-30 02:00:00,
2013-05-29 20:01:00,60.6,33.0,29.68,NW,307,0.0,14.4,35,0.00,,---,2.31,VWS V14.01,2013-05-30 02:01:00,
2013-05-29 20:02:00,60.5,33.2,29.68,NW,307,0.0,14.4,36,0.00,,---,0.02,VWS V14.01,2013-05-30 02:02:00,
2013-05-29 20:03:00,62.5,33.3,29.65,NNE,28,10.6,12.4,33,0.00,,---,0.02,VWS V14.01,2013-05-30 02:03:00,
2013-05-29 20:04:00,60.3,33.5,29.68,North,359,4.2,14.4,36,0.00,,---,0.68,VWS V14.01,2013-05-30 02:04:00,
2013-05-29 20:05:00,60.3,33.0,29.68,North,359,0.0,14.4,36,0.00,,---,0.00,VWS V14.01,2013-05-30 02:05:00,
2013-05-29 20:06:00,60.2,33.5,29.68,North,359,0.0,14.4,36,0.00,,---,0.02,VWS V14.01,2013-05-30 02:06:00,
2013-05-29 20:07:00,13.3,3.7,0.01,North,0,12.2,14.4,65,0.00,,---,12.06,VWS V14.01,2013-05-30 02:07:00,
2013-05-29 20:08:00,60.2,34.4,29.68,North,359,0.0,13.4,38,0.00,,---,0.02,VWS V14.01,2013-05-30 02:08:00,
2013-05-29 20:09:00,60.2,-4.7,1.35,North,359,0.0,12.6,7,0.00,,---,0.02,VWS V14.01,2013-05-30 02:09:00,
2013-05-29 20:10:00,60.1,34.0,29.68,North,4,0.0,0.0,37,0.00,,---,0.02,VWS V14.01,2013-05-30 02:10:00,
2013-05-29 20:11:00,62.2,33.5,29.65,NE,45,9.3,14.4,34,0.00,,---,4.20,VWS V14.01,2013-05-30 02:11:00,
2013-05-29 20:12:00,60.0,33.7,29.68,North,359,0.0,0.0,37,0.00,,---,1.03,VWS V14.01,2013-05-30 02:12:00,
2013-05-29 20:13:00,59.9,33.7,29.68,NW,315,4.5,7.8,37,0.00,,---,0.02,VWS V14.01,2013-05-30 02:13:00,
2013-05-29 20:14:00,59.9,33.2,29.68,NW,309,0.0,3.2,36,0.00,,---,0.02,VWS V14.01,2013-05-30 02:14:00,
2013-05-29 20:15:00,59.8,33.0,29.68,North,359,5.0,13.4,36,0.00,,---,0.02,VWS V14.01,2013-05-30 02:15:00,
2013-05-29 20:16:00,59.8,33.0,29.68,North,8,0.0,3.4,36,0.00,,---,0.02,VWS V14.01,2013-05-30 02:16:00,
2013-05-29 20:17:00,59.7,32.9,29.68,NNE,22,4.4,15.8,36,0.00,,---,0.02,VWS V14.01,2013-05-30 02:17:00,
2013-05-29 20:18:00,59.6,32.6,29.68,NNE,22,0.0,2.9,36,0.00,,---,1.94,VWS V14.01,2013-05-30 02:18:00,
2013-05-29 20:19:00,59.6,32.6,29.68,NNE,22,0.0,0.0,36,0.00,,---,0.02,VWS V14.01,2013-05-30 02:19:00,
2013-05-29 20:20:00,59.6,32.4,29.69,North,359,0.0,14.4,36,0.00,,---,0.02,VWS V14.01,2013-05-30 02:20:00,
2013-05-29 20:21:00,59.5,32.3,29.69,North,359,0.0,14.4,36,0.00,,---,0.02,VWS V14.01,2013-05-30 02:21:00,
2013-05-29 20:22:00,59.5,15.5,29.69,North,359,0.0,14.4,18,0.00,,---,99.99,VWS V14.01,2013-05-30 02:22:00,
2013-05-29 20:23:00,59.5,0.0,29.92,North,359,0.0,14.4,0,0.00,,---,0.02,VWS V14.01,2013-05-30 02:23:00,
2013-05-29 20:24:00,59.5,15.3,29.48,North,359,0.0,0.0,18,0.00,,---,7.26,VWS V14.01,2013-05-30 02:24:00,
2013-05-29 20:25:00,59.5,32.9,29.69,North,359,0.0,0.0,36,0.00,,---,0.02,VWS V14.01,2013-05-30 02:25:00,
2013-05-29 20:26:00,59.5,33.1,29.69,North,359,0.0,14.4,37,0.00,,---,0.02,VWS V14.01,2013-05-30 02:26:00,
2013-05-29 20:27:00,59.5,33.2,29.69,North,359,0.0,3.2,37,0.00,,---,0.02,VWS V14.01,2013-05-30 02:27:00,
2013-05-29 20:28:00,59.5,33.1,29.69,North,359,0.0,12.0,37,0.00,,---,12.28,VWS V14.01,2013-05-30 02:28:00,
2013-05-29 20:29:00,59.5,33.2,29.69,North,359,0.0,9.2,37,0.00,,---,0.02,VWS V14.01,2013-05-30 02:29:00,
2013-05-29 20:30:00,59.5,34.0,29.69,North,359,0.0,12.1,38,0.00,,---,1.48,VWS V14.01,2013-05-30 02:30:00,
2013-05-29 20:31:00,59.4,32.7,29.70,NNW,339,5.2,5.2,36,0.00,,---,2.07,VWS V14.01,2013-05-30 02:31:00,
2013-05-29 20:32:00,59.4,32.8,29.69,NW,322,0.0,12.9,36,0.00,,---,99.99,VWS V14.01,2013-05-30 02:32:00,
2013-05-29 20:33:00,59.4,32.6,29.69,NW,322,0.0,3.0,36,0.00,,---,0.02,VWS V14.01,2013-05-30 02:33:00,
2013-05-29 20:34:00,59.4,32.4,29.70,NW,322,0.0,14.4,36,0.00,,---,0.02,VWS V14.01,2013-05-30 02:34:00,
2013-05-29 20:35:00,59.3,32.1,29.70,North,356,5.0,14.4,36,0.00,,---,99.99,VWS V14.01,2013-05-30 02:35:00,
2013-05-29 20:36:00,59.3,32.0,29.70,NW,312,3.3,3.4,35,0.00,,---,0.96,VWS V14.01,2013-05-30 02:36:00,
2013-05-29 20:37:00,59.2,31.7,29.70,NW,312,0.0,14.4,35,0.00,,---,0.02,VWS V14.01,2013-05-30 02:37:00,
2013-05-29 20:38:00,59.7,32.9,29.68,NNE,22,4.4,15.8,36,0.00,,---,4.42,VWS V14.01,2013-05-30 02:38:00,
2013-05-29 20:39:00,59.2,31.6,29.70,North,7,3.2,14.4,35,0.00,,---,0.02,VWS V14.01,2013-05-30 02:39:00,
2013-05-29 20:40:00,59.1,31.4,29.70,North,7,0.0,14.4,35,0.00,,---,0.02,VWS V14.01,2013-05-30 02:40:00,
2013-05-29 20:41:00,61.3,33.7,29.66,North,4,0.0,11.0,35,0.00,,---,4.34,VWS V14.01,2013-05-30 02:41:00,
2013-05-29 20:42:00,59.1,31.9,29.70,North,7,0.0,14.4,36,0.00,,---,0.02,VWS V14.01,2013-05-30 02:42:00,
2013-05-29 20:43:00,13.3,-9.2,0.01,North,0,0.0,14.4,35,0.00,,---,0.02,VWS V14.01,2013-05-30 02:43:00,
2013-05-29 20:44:00,59.8,42.8,0.00,NW,309,0.0,0.0,53,0.00,,---,4.44,VWS V14.01,2013-05-30 02:44:00,
2013-05-29 20:45:00,59.1,31.7,29.70,North,359,0.0,9.2,35,0.00,,---,0.02,VWS V14.01,2013-05-30 02:45:00,
2013-05-29 20:46:00,59.1,31.8,29.71,NNW,332,0.0,6.9,35,0.00,,---,0.02,VWS V14.01,2013-05-30 02:46:00,
2013-05-29 20:47:00,59.1,31.7,29.71,NNW,332,4.6,14.4,35,0.00,,---,1.48,VWS V14.01,2013-05-30 02:47:00,
2013-05-29 20:48:00,59.1,31.4,29.71,NE,42,0.0,9.2,35,0.00,,---,0.02,VWS V14.01,2013-05-30 02:48:00,
2013-05-29 20:49:00,59.1,31.4,29.71,NE,42,0.0,14.0,35,0.00,,---,0.02,VWS V14.01,2013-05-30 02:49:00,
2013-05-29 20:50:00,59.1,31.4,29.71,NE,42,0.0,5.8,35,0.00,,---,0.02,VWS V14.01,2013-05-30 02:50:00,
2013-05-29 20:51:00,1.5,-7.7,36.21,North,0,0.0,9.2,64,0.00,,---,12.51,VWS V14.01,2013-05-30 02:51:00,
2013-05-29 20:52:00,59.0,31.6,29.71,NE,42,0.0,0.0,35,0.00,,---,0.00,VWS V14.01,2013-05-30 02:52:00,
2013-05-29 20:53:00,59.0,31.9,29.71,NE,42,0.0,14.4,36,0.00,,---,0.02,VWS V14.01,2013-05-30 02:53:00,
2013-05-29 20:54:00,59.0,0.0,29.92,NE,42,0.0,1.9,0,0.00,,---,0.02,VWS V14.01,2013-05-30 02:54:00,
2013-05-29 20:55:00,60.8,33.1,29.66,NW,314,0.0,10.0,35,0.00,,---,6.23,VWS V14.01,2013-05-30 02:55:00,
2013-05-29 20:56:00,58.9,31.9,29.71,NE,42,0.0,14.4,36,0.00,,---,0.02,VWS V14.01,2013-05-30 02:56:00,
2013-05-29 20:57:00,58.9,32.0,29.71,NE,42,0.0,0.0,36,0.00,,---,2.31,VWS V14.01,2013-05-30 02:57:00,
2013-05-29 20:58:00,72.8,0.0,2.14,NE,42,0.0,1.9,0,0.00,,---,0.00,VWS V14.01,2013-05-30 02:58:00,
2013-05-29 20:59:00,58.7,32.0,29.71,NE,42,0.0,0.0,36,0.00,,---,0.02,VWS V14.01,2013-05-30 02:59:00,
2013-05-29 21:00:00,58.7,32.0,29.71,NE,42,0.0,14.6,36,0.00,,---,0.02,VWS V14.01,2013-05-30 03:00:00,
2013-05-29 21:01:00,58.6,32.0,29.71,NE,42,0.0,5.5,36,0.00,,---,0.02,VWS V14.01,2013-05-30 03:01:00,
2013-05-29 21:02:00,58.6,32.2,29.72,NE,42,0.0,1.9,37,0.00,,---,0.02,VWS V14.01,2013-05-30 03:02:00,
2013-05-29 21:03:00,58.5,32.2,29.72,NE,42,0.0,13.2,37,0.00,,---,0.02,VWS V14.01,2013-05-30 03:03:00,
2013-05-29 21:04:00,58.4,31.9,29.72,NE,42,0.0,13.2,36,0.00,,---,0.02,VWS V14.01,2013-05-30 03:04:00,
2013-05-29 21:05:00,58.4,32.0,29.72,NE,42,0.0,13.2,37,0.10,,---,0.02,VWS V14.01,2013-05-30 03:05:00,
2013-05-29 21:06:00,58.4,32.0,29.72,NE,42,0.0,9.2,37,0.00,,---,0.02,VWS V14.01,2013-05-30 03:06:00,
2013-05-29 21:07:00,58.3,32.4,29.72,NW,308,0.0,3.4,37,0.00,,---,0.02,VWS V14.01,2013-05-30 03:07:00,
2013-05-29 21:08:00,58.3,32.2,29.72,NW,323,0.0,12.1,37,0.00,,---,0.02,VWS V14.01,2013-05-30 03:08:00,
2013-05-29 21:09:00,58.3,32.0,29.72,NW,323,0.0,5.3,37,0.00,,---,0.02,VWS V14.01,2013-05-30 03:09:00,
2013-05-29 21:10:00,58.3,31.9,29.72,NW,323,0.0,15.2,37,0.00,,---,0.02,VWS V14.01,2013-05-30 03:10:00,
2013-05-29 21:11:00,58.3,31.8,29.72,NNW,340,0.0,2.1,36,0.00,,---,0.02,VWS V14.01,2013-05-30 03:11:00,
2013-05-29 21:12:00,58.2,31.8,29.72,NNW,340,0.0,15.3,37,0.00,,---,0.02,VWS V14.01,2013-05-30 03:12:00,
2013-05-29 21:13:00,58.2,31.8,29.72,NNW,340,0.0,0.0,37,0.00,,---,4.46,VWS V14.01,2013-05-30 03:13:00,
2013-05-29 21:14:00,58.1,31.7,29.72,NNW,340,0.0,0.0,37,0.00,,---,0.02,VWS V14.01,2013-05-30 03:14:00,
2013-05-29 21:15:00,58.2,32.2,29.72,NNW,340,0.0,15.6,37,0.00,,---,0.02,VWS V14.01,2013-05-30 03:15:00,
2013-05-29 21:16:00,58.2,32.2,29.73,NNW,340,0.0,5.3,37,0.00,,---,7.23,VWS V14.01,2013-05-30 03:16:00,
2013-05-29 21:17:00,58.1,31.8,29.73,NNW,340,0.0,0.0,37,0.00,,---,0.02,VWS V14.01,2013-05-30 03:17:00,
2013-05-29 21:18:00,58.1,31.6,29.73,North,1,0.0,3.0,36,0.00,,---,0.02,VWS V14.01,2013-05-30 03:18:00,
2013-05-29 21:19:00,58.1,31.5,29.73,North,359,0.0,4.2,36,0.00,,---,0.02,VWS V14.01,2013-05-30 03:19:00,
2013-05-29 21:20:00,58.0,31.6,29.73,North,359,0.0,13.1,36,0.00,,---,2.11,VWS V14.01,2013-05-30 03:20:00,
2013-05-29 21:21:00,58.0,31.4,29.73,NNW,329,0.0,14.4,36,0.03,,---,0.02,VWS V14.01,2013-05-30 03:21:00,
2013-05-29 21:22:00,58.0,31.4,29.73,NW,323,5.5,11.9,36,0.00,,---,1.48,VWS V14.01,2013-05-30 03:22:00,
2013-05-29 21:23:00,58.0,31.3,29.73,NW,326,3.2,14.4,36,0.00,,---,2.32,VWS V14.01,2013-05-30 03:23:00,
2013-05-29 21:24:00,57.9,31.2,29.73,NW,326,0.0,5.2,36,0.00,,---,0.02,VWS V14.01,2013-05-30 03:24:00,
2013-05-29 21:25:00,57.9,31.1,29.73,NW,326,0.0,0.0,36,0.00,,---,0.02,VWS V14.01,2013-05-30 03:25:00,
2013-05-29 21:26:00,57.9,31.3,29.73,NW,326,0.0,14.4,36,0.00,,---,0.00,VWS V14.01,2013-05-30 03:26:00,
2013-05-29 21:27:00,-1.3,-27.9,5.54,NW,326,9.2,14.4,26,0.00,,---,4.45,VWS V14.01,2013-05-30 03:27:00,
2013-05-29 21:28:00,58.0,31.3,29.73,North,0,0.0,9.2,36,0.00,,---,0.00,VWS V14.01,2013-05-30 03:28:00,
2013-05-29 21:29:00,58.0,31.4,29.74,North,0,0.0,5.3,36,0.00,,---,0.02,VWS V14.01,2013-05-30 03:29:00,
2013-05-29 21:30:00,57.9,31.5,29.74,North,0,0.0,0.0,36,0.00,,---,0.02,VWS V14.01,2013-05-30 03:30:00,
2013-05-29 21:31:00,58.0,31.7,29.73,North,0,0.0,0.0,37,0.00,,---,0.02,VWS V14.01,2013-05-30 03:31:00,
2013-05-29 21:32:00,57.9,31.3,29.74,NW,326,0.0,1.1,36,0.00,,---,0.02,VWS V14.01,2013-05-30 03:32:00,
2013-05-29 21:33:00,58.0,31.4,29.74,North,356,0.0,14.4,36,0.00,,---,0.02,VWS V14.01,2013-05-30 03:33:00,
2013-05-29 21:34:00,58.0,31.4,29.74,North,356,0.0,14.4,36,0.00,,---,0.02,VWS V14.01,2013-05-30 03:34:00,
2013-05-29 21:35:00,58.0,31.4,29.74,North,356,0.0,14.4,36,0.00,,---,0.02,VWS V14.01,2013-05-30 03:35:00,
2013-05-29 21:36:00,58.0,31.7,29.74,North,356,0.0,5.3,37,0.00,,---,0.02,VWS V14.01,2013-05-30 03:36:00,
2013-05-29 21:37:00,57.9,31.9,29.74,North,356,0.0,9.2,37,0.00,,---,0.02,VWS V14.01,2013-05-30 03:37:00,
2013-05-29 21:38:00,58.0,31.8,29.74,North,356,0.0,9.2,37,0.00,,---,0.02,VWS V14.01,2013-05-30 03:38:00,
2013-05-29 21:39:00,58.0,31.8,29.74,North,356,0.0,0.0,37,0.00,,---,0.02,VWS V14.01,2013-05-30 03:39:00,
2013-05-29 21:40:00,13.3,-8.3,0.01,North,0,0.0,14.4,37,0.00,,---,0.02,VWS V14.01,2013-05-30 03:40:00,
2013-05-29 21:41:00,57.9,31.9,29.74,North,356,0.0,5.1,37,0.00,,---,0.02,VWS V14.01,2013-05-30 03:41:00,
2013-05-29 21:42:00,57.9,31.6,29.74,North,356,3.2,11.9,37,0.00,,---,0.02,VWS V14.01,2013-05-30 03:42:00,
2013-05-29 21:43:00,57.9,31.4,29.74,NW,304,0.0,0.0,36,0.00,,---,0.02,VWS V14.01,2013-05-30 03:43:00,
2013-05-29 21:44:00,57.9,17.1,29.74,NNW,335,0.0,14.4,20,0.00,,---,5.94,VWS V14.01,2013-05-30 03:44:00,
2013-05-29 21:45:00,57.9,31.3,29.74,North,0,0.0,9.7,36,0.00,,---,0.02,VWS V14.01,2013-05-30 03:45:00,
2013-05-29 21:46:00,57.9,30.9,29.74,North,10,9.9,12.6,36,0.00,,---,0.02,VWS V14.01,2013-05-30 03:46:00,
2013-05-29 21:47:00,57.9,30.8,29.74,North,359,0.0,0.0,36,0.00,,---,0.02,VWS V14.01,2013-05-30 03:47:00,
2013-05-29 21:48:00,57.9,30.8,29.74,NNW,343,2.7,5.1,36,0.00,,---,5.94,VWS V14.01,2013-05-30 03:48:00,
2013-05-29 21:49:00,57.9,30.8,29.74,NW,319,0.0,3.0,36,0.00,,---,0.02,VWS V14.01,2013-05-30 03:49:00,
2013-05-29 21:50:00,57.9,31.2,29.74,NW,319,3.1,12.8,36,0.00,,---,0.02,VWS V14.01,2013-05-30 03:50:00,
2013-05-29 21:51:00,57.9,31.1,29.74,NW,315,0.0,6.7,36,0.00,,---,0.02,VWS V14.01,2013-05-30 03:51:00,
2013-05-29 21:52:00,57.9,30.9,29.74,NNW,336,0.0,6.0,36,0.00,,---,0.02,VWS V14.01,2013-05-30 03:52:00,
2013-05-29 21:53:00,57.9,30.9,29.74,NNW,336,0.0,12.8,36,0.00,,---,0.02,VWS V14.01,2013-05-30 03:53:00,
2013-05-29 21:54:00,57.9,30.9,29.74,North,359,6.4,14.4,36,0.00,,---,0.02,VWS V14.01,2013-05-30 03:54:00,
2013-05-29 21:55:00,57.9,30.6,29.74,NW,314,6.4,11.6,35,0.00,,---,0.02,VWS V14.01,2013-05-30 03:55:00,
2013-05-29 21:56:00,57.9,40.1,29.48,North,359,0.0,9.2,51,0.00,,---,4.36,VWS V14.01,2013-05-30 03:56:00,
2013-05-29 21:57:00,57.9,30.8,29.74,North,10,3.3,9.9,36,0.00,,---,0.02,VWS V14.01,2013-05-30 03:57:00,
2013-05-29 21:58:00,57.9,30.7,29.74,North,3,0.0,11.1,35,0.00,,---,0.02,VWS V14.01,2013-05-30 03:58:00,
2013-05-29 21:59:00,57.9,30.8,29.74,North,359,0.0,6.0,36,0.00,,---,0.00,VWS V14.01,2013-05-30 03:59:00,
2013-05-29 22:00:00,57.8,30.8,29.74,NNW,335,0.0,11.1,36,0.00,,---,0.02,VWS V14.01,2013-05-30 04:00:00,
2013-05-29 22:01:00,57.8,30.8,29.74,NNW,335,0.0,11.2,36,0.00,,---,0.02,VWS V14.01,2013-05-30 04:01:00,
2013-05-29 22:02:00,57.8,30.8,29.74,North,359,0.0,5.2,36,0.00,,---,0.37,VWS V14.01,2013-05-30 04:02:00,
2013-05-29 22:03:00,57.8,30.8,29.74,NNW,340,0.0,9.2,36,0.00,,---,0.02,VWS V14.01,2013-05-30 04:03:00,
2013-05-29 22:04:00,57.8,40.0,0.00,NW,316,0.0,5.0,51,0.00,,---,4.39,VWS V14.01,2013-05-30 04:04:00,
2013-05-29 22:05:00,57.8,31.0,29.74,NW,316,0.0,11.3,36,0.00,,---,0.02,VWS V14.01,2013-05-30 04:05:00,
2013-05-29 22:06:00,57.7,30.8,29.75,NW,316,0.0,5.6,36,0.00,,---,0.02,VWS V14.01,2013-05-30 04:06:00,
2013-05-29 22:07:00,57.7,30.9,29.75,NW,316,0.0,5.0,36,0.00,,---,0.02,VWS V14.01,2013-05-30 04:07:00,
2013-05-29 22:08:00,57.6,33.5,29.75,NW,316,0.0,12.7,40,0.00,,---,7.17,VWS V14.01,2013-05-30 04:08:00,
2013-05-29 22:09:00,57.6,31.3,29.75,NW,316,0.0,14.4,37,0.00,,---,0.02,VWS V14.01,2013-05-30 04:09:00,
2013-05-29 22:10:00,57.6,31.1,29.75,NW,316,0.0,0.0,36,0.00,,---,1.48,VWS V14.01,2013-05-30 04:10:00,
2013-05-29 22:11:00,57.6,31.1,29.75,NNW,336,0.0,14.4,36,0.00,,---,2.31,VWS V14.01,2013-05-30 04:11:00,
2013-05-29 22:12:00,57.5,31.1,29.75,NNW,336,0.0,9.2,36,0.00,,---,4.45,VWS V14.01,2013-05-30 04:12:00,
2013-05-29 22:13:00,57.4,30.9,29.75,NNW,336,0.0,14.4,36,0.00,,---,0.02,VWS V14.01,2013-05-30 04:13:00,
2013-05-29 22:14:00,57.5,31.0,29.75,NNW,336,0.0,11.6,36,0.00,,---,0.02,VWS V14.01,2013-05-30 04:14:00,
2013-05-29 22:15:00,57.5,31.1,29.75,NNW,336,0.0,14.4,36,0.00,,---,0.02,VWS V14.01,2013-05-30 04:15:00,
2013-05-29 22:16:00,57.4,31.0,29.76,NNW,336,0.0,14.4,36,0.00,,---,0.02,VWS V14.01,2013-05-30 04:16:00,
2013-05-29 22:17:00,57.3,31.1,29.76,NNW,336,0.0,14.4,37,0.00,,---,0.02,VWS V14.01,2013-05-30 04:17:00,
2013-05-29 22:18:00,57.3,31.1,29.76,NNW,336,0.0,14.4,37,0.00,,---,2.05,VWS V14.01,2013-05-30 04:18:00,
2013-05-29 22:19:00,57.2,31.6,29.76,NNW,336,0.0,0.0,38,0.00,,---,0.02,VWS V14.01,2013-05-30 04:19:00,
2013-05-29 22:20:00,57.3,32.1,29.76,NNW,336,0.0,14.4,38,0.00,,---,0.02,VWS V14.01,2013-05-30 04:20:00,
2013-05-29 22:21:00,57.3,32.3,29.76,NNW,336,0.0,0.0,39,0.00,,---,0.02,VWS V14.01,2013-05-30 04:21:00,
2013-05-29 22:22:00,57.3,32.0,29.76,NNW,336,0.0,14.4,38,0.00,,---,0.02,VWS V14.01,2013-05-30 04:22:00,
2013-05-29 22:23:00,49.7,0.0,3.97,NNW,336,0.0,14.4,0,0.00,,---,0.02,VWS V14.01,2013-05-30 04:23:00,
2013-05-29 22:24:00,57.3,32.5,29.76,NNW,336,0.0,0.0,39,0.00,,---,0.02,VWS V14.01,2013-05-30 04:24:00,
2013-05-29 22:25:00,57.4,32.6,29.76,NNW,336,0.0,14.4,39,0.00,,---,0.02,VWS V14.01,2013-05-30 04:25:00,
2013-05-29 22:26:00,57.4,45.2,29.49,NNW,336,0.0,0.0,64,0.00,,---,13.74,VWS V14.01,2013-05-30 04:26:00,
2013-05-29 22:27:00,57.4,-6.8,29.76,NNW,336,0.0,9.2,7,0.00,,---,0.02,VWS V14.01,2013-05-30 04:27:00,
2013-05-29 22:28:00,57.3,11.4,29.48,NNW,336,0.0,0.1,16,0.00,,---,7.17,VWS V14.01,2013-05-30 04:28:00,
2013-05-29 22:29:00,57.3,33.3,29.76,NNW,336,0.0,14.4,40,0.00,,---,0.02,VWS V14.01,2013-05-30 04:29:00,
2013-05-29 22:30:00,57.2,33.5,29.76,NNW,336,0.0,4.7,41,0.00,,---,0.02,VWS V14.01,2013-05-30 04:30:00,
2013-05-29 22:31:00,70.3,45.4,0.00,NNW,336,14.4,14.4,41,0.00,,---,0.00,VWS V14.01,2013-05-30 04:31:00,
2013-05-29 22:32:00,57.0,33.1,29.76,NNW,336,0.0,12.8,40,0.00,,---,2.31,VWS V14.01,2013-05-30 04:32:00,
2013-05-29 22:33:00,57.0,27.8,29.76,NNW,336,0.0,0.1,32,0.00,,---,7.18,VWS V14.01,2013-05-30 04:33:00,
2013-05-29 22:34:00,57.1,33.5,29.76,NNW,336,0.0,4.7,41,0.00,,---,99.99,VWS V14.01,2013-05-30 04:34:00,
2013-05-29 22:35:00,56.8,32.7,29.76,NNW,336,0.0,13.7,40,0.00,,---,0.02,VWS V14.01,2013-05-30 04:35:00,
2013-05-29 22:36:00,57.3,20.5,29.76,NNW,336,0.0,0.0,24,0.00,,---,13.41,VWS V14.01,2013-05-30 04:36:00,
2013-05-29 22:37:00,57.4,32.6,29.48,NNW,336,0.0,0.0,39,0.00,,---,99.99,VWS V14.01,2013-05-30 04:37:00,
2013-05-29 22:38:00,56.6,32.0,29.76,NNE,14,0.0,5.6,39,0.00,,---,0.02,VWS V14.01,2013-05-30 04:38:00,
2013-05-29 22:41:00,57.8,30.8,29.74,NNW,335,2.7,11.2,36,0.00,,---,99.99,VWS V14.01,2013-05-30 04:41:00,
2013-05-29 22:42:00,57.9,30.8,29.74,North,359,0.0,11.7,36,0.00,,---,99.99,VWS V14.01,2013-05-30 04:42:00,
2013-05-29 22:47:00,57.9,31.6,29.74,North,356,0.0,11.9,37,0.00,,---,7.20,VWS V14.01,2013-05-30 04:47:00,
2013-05-29 22:48:00,57.9,31.1,29.74,NW,315,3.5,6.7,36,0.00,,---,7.18,VWS V14.01,2013-05-30 04:48:00,
2013-05-29 22:51:00,58.0,31.3,29.73,North,0,0.0,9.2,36,0.00,,---,12.88,VWS V14.01,2013-05-30 04:51:00,
2013-05-29 22:55:00,57.3,32.9,29.76,NNW,336,0.0,0.1,40,0.00,,---,7.17,VWS V14.01,2013-05-30 04:55:00,
2013-05-29 23:03:00,57.9,31.5,29.74,North,356,0.0,14.4,37,0.00,,---,13.00,VWS V14.01,2013-05-30 05:03:00,
2013-05-29 23:09:00,57.9,31.3,29.74,North,0,0.0,9.7,36,0.00,,---,13.05,VWS V14.01,2013-05-30 05:09:00,
2013-05-29 23:14:00,57.5,31.1,29.75,NNW,336,0.0,14.4,36,0.00,,---,0.02,VWS V14.01,2013-05-30 05:14:00,
2013-05-29 23:16:00,57.4,31.0,29.76,NNW,336,0.0,14.4,36,0.00,,---,0.02,VWS V14.01,2013-05-30 05:16:00,
2013-05-29 23:20:00,57.9,30.8,29.74,North,359,0.0,9.2,36,0.00,,---,13.16,VWS V14.01,2013-05-30 05:20:00,
2013-05-29 23:28:00,57.8,31.0,29.74,NW,316,0.0,11.3,36,0.00,,---,13.25,VWS V14.01,2013-05-30 05:28:00,
2013-05-29 23:38:00,57.4,31.0,29.75,NNW,336,0.0,14.4,36,0.00,,---,13.34,VWS V14.01,2013-05-30 05:38:00,
2013-05-29 23:50:00,57.3,32.8,29.76,NNW,336,0.0,14.4,39,0.00,,---,13.47,VWS V14.01,2013-05-30 05:50:00,